Time,TemperatureF,DewpointF,PressureIn,WindDirection,WindDirectionDegrees,WindSpeedMPH,WindSpeedGustMPH,Humidity,HourlyPrecipIn,Conditions,Clouds,dailyrainin,SolarRadiationWatts/m^2,SoftwareType,DateUTC
2013-07-21 00:02:00,75.7,69.1,29.97,ENE,62,3.5,3.5,80,0.00,SCT,,0.00,0.0,WeatherDisplay:10.37,2013-07-20 22:02:00,
2013-07-21 00:05:00,75.6,69.0,29.96,ENE,59,3.5,3.5,80,0.00,SCT,,0.00,0.0,WeatherDisplay:10.37,2013-07-20 22:05:00,
2013-07-21 00:06:00,75.6,69.0,29.97,ENE,59,2.3,2.3,80,0.00,SCT,,0.00,0.0,WeatherDisplay:10.37,2013-07-20 22:06:00,
2013-07-21 00:07:00,75.6,69.0,29.97,ENE,59,1.2,0.0,80,0.00,SCT,,0.00,0.0,WeatherDisplay:10.37,2013-07-20 22:07:00,
2013-07-21 00:09:00,75.5,68.9,29.96,ENE,59,0.0,0.0,80,0.00,SCT,,0.00,0.0,WeatherDisplay:10.37,2013-07-20 22:09:00,
2013-07-21 00:11:00,75.5,68.9,29.97,ENE,59,1.2,0.0,80,0.00,SCT,,0.00,0.0,WeatherDisplay:10.37,2013-07-20 22:11:00,
2013-07-21 00:12:00,75.4,68.8,29.97,ENE,59,0.0,0.0,80,0.00,SCT,,0.00,0.0,WeatherDisplay:10.37,2013-07-20 22:12:00,
2013-07-21 00:14:00,75.4,68.8,29.97,ENE,59,0.0,0.0,80,0.00,SCT,,0.00,0.0,WeatherDisplay:10.37,2013-07-20 22:14:00,
2013-07-21 00:16:00,75.4,68.8,29.97,ENE,59,0.0,0.0,80,0.00,SCT,,0.00,0.0,WeatherDisplay:10.37,2013-07-20 22:16:00,
2013-07-21 00:17:00,75.4,68.8,29.96,ENE,59,0.0,0.0,80,0.00,SCT,,0.00,0.0,WeatherDisplay:10.37,2013-07-20 22:17:00,
2013-07-21 00:18:00,75.4,68.8,29.96,ENE,59,0.0,0.0,80,0.00,SCT,,0.00,0.0,WeatherDisplay:10.37,2013-07-20 22:18:00,
2013-07-21 00:19:00,75.3,68.7,29.97,ENE,59,0.0,0.0,80,0.00,SCT,,0.00,0.0,WeatherDisplay:10.37,2013-07-20 22:19:00,
2013-07-21 00:22:00,75.3,68.7,29.97,ENE,59,0.0,0.0,80,0.00,SCT,,0.00,0.0,WeatherDisplay:10.37,2013-07-20 22:22:00,
2013-07-21 00:23:00,75.3,68.7,29.97,ENE,59,0.0,0.0,80,0.00,SCT,,0.00,0.0,WeatherDisplay:10.37,2013-07-20 22:23:00,
2013-07-21 00:24:00,75.3,68.7,29.97,ENE,59,0.0,0.0,80,0.00,SCT,,0.00,0.0,WeatherDisplay:10.37,2013-07-20 22:24:00,
2013-07-21 00:27:00,75.2,68.6,29.97,ENE,59,0.0,0.0,80,0.00,SCT,,0.00,0.0,WeatherDisplay:10.37,2013-07-20 22:27:00,
2013-07-21 00:28:00,75.2,68.6,29.96,ENE,59,0.0,0.0,80,0.00,SCT,,0.00,0.0,WeatherDisplay:10.37,2013-07-20 22:28:00,
2013-07-21 00:29:00,75.2,68.6,29.96,ENE,59,0.0,0.0,80,0.00,SCT,,0.00,0.0,WeatherDisplay:10.37,2013-07-20 22:29:00,
2013-07-21 00:30:00,75.2,68.6,29.96,ENE,59,0.0,0.0,80,0.00,SCT,,0.00,0.0,WeatherDisplay:10.37,2013-07-20 22:30:00,
2013-07-21 00:32:00,75.2,68.6,29.96,ENE,59,0.0,0.0,80,0.00,SCT,,0.00,0.0,WeatherDisplay:10.37,2013-07-20 22:32:00,
2013-07-21 00:35:00,75.2,68.6,29.96,ENE,59,0.0,0.0,80,0.00,SCT,,0.00,0.0,WeatherDisplay:10.37,2013-07-20 22:35:00,
2013-07-21 00:36:00,75.2,69.0,29.96,ENE,59,0.0,0.0,81,0.00,SCT,,0.00,0.0,WeatherDisplay:10.37,2013-07-20 22:36:00,
2013-07-21 00:37:00,75.2,69.0,29.96,ENE,59,0.0,0.0,81,0.00,SCT,,0.00,0.0,WeatherDisplay:10.37,2013-07-20 22:37:00,
2013-07-21 00:40:00,75.2,69.0,29.96,ENE,59,0.0,0.0,81,0.00,SCT,,0.00,0.0,WeatherDisplay:10.37,2013-07-20 22:40:00,
2013-07-21 00:41:00,75.2,69.0,29.96,ENE,59,0.0,0.0,81,0.00,SCT,,0.00,0.0,WeatherDisplay:10.37,2013-07-20 22:41:00,
2013-07-21 00:43:00,75.2,68.6,29.96,ENE,59,0.0,0.0,80,0.00,SCT,,0.00,0.0,WeatherDisplay:10.37,2013-07-20 22:43:00,
2013-07-21 00:45:00,75.2,68.6,29.96,ENE,59,0.0,0.0,80,0.00,SCT,,0.00,0.0,WeatherDisplay:10.37,2013-07-20 22:45:00,
2013-07-21 00:46:00,75.2,68.6,29.96,ENE,59,0.0,0.0,80,0.00,SCT,,0.00,0.0,WeatherDisplay:10.37,2013-07-20 22:46:00,
2013-07-21 00:47:00,75.2,68.6,29.96,ENE,59,0.0,0.0,80,0.00,SCT,,0.00,0.0,WeatherDisplay:10.37,2013-07-20 22:47:00,
2013-07-21 00:48:00,75.2,69.0,29.96,ENE,57,0.0,0.0,81,0.00,SCT,,0.00,0.0,WeatherDisplay:10.37,2013-07-20 22:48:00,
2013-07-21 00:50:00,75.2,69.0,29.96,ENE,57,0.0,0.0,81,0.00,SCT,,0.00,0.0,WeatherDisplay:10.37,2013-07-20 22:50:00,
2013-07-21 00:52:00,75.1,68.9,29.96,NE,56,0.0,0.0,81,0.00,SCT,,0.00,0.0,WeatherDisplay:10.37,2013-07-20 22:52:00,
2013-07-21 00:55:00,75.1,68.9,29.96,NE,56,0.0,0.0,81,0.00,SCT,,0.00,0.0,WeatherDisplay:10.37,2013-07-20 22:55:00,
2013-07-21 00:56:00,75.1,68.9,29.96,ENE,57,0.0,0.0,81,0.00,SCT,,0.00,0.0,WeatherDisplay:10.37,2013-07-20 22:56:00,
2013-07-21 00:57:00,75.1,68.9,29.96,NE,56,0.0,0.0,81,0.00,SCT,,0.00,0.0,WeatherDisplay:10.37,2013-07-20 22:57:00,
2013-07-21 00:58:00,75.1,68.9,29.96,NE,56,0.0,0.0,81,0.00,SCT,,0.00,0.0,WeatherDisplay:10.37,2013-07-20 22:58:00,
2013-07-21 01:00:00,75.1,68.9,29.96,NE,56,0.0,0.0,81,0.00,SCT,,0.00,0.0,WeatherDisplay:10.37,2013-07-20 23:00:00,
2013-07-21 01:02:00,75.1,68.9,29.96,NE,56,2.3,2.3,81,0.00,SCT,,0.00,0.0,WeatherDisplay:10.37,2013-07-20 23:02:00,
2013-07-21 01:03:00,75.1,68.9,29.96,NE,56,2.3,2.3,81,0.00,SCT,,0.00,0.0,WeatherDisplay:10.37,2013-07-20 23:03:00,
2013-07-21 01:05:00,75.0,68.8,29.96,NE,56,2.3,0.0,81,0.00,SCT,,0.00,0.0,WeatherDisplay:10.37,2013-07-20 23:05:00,
2013-07-21 01:07:00,75.0,68.8,29.96,NE,56,0.0,0.0,81,0.00,SCT,,0.00,0.0,WeatherDisplay:10.37,2013-07-20 23:07:00,
2013-07-21 01:08:00,75.0,68.8,29.96,NE,56,1.2,1.2,81,0.00,SCT,,0.00,0.0,WeatherDisplay:10.37,2013-07-20 23:08:00,
2013-07-21 01:09:00,75.0,68.8,29.96,ENE,59,0.0,0.0,81,0.00,SCT,,0.00,0.0,WeatherDisplay:10.37,2013-07-20 23:09:00,
2013-07-21 01:11:00,75.0,68.8,29.96,ENE,59,3.0,3.0,81,0.00,SCT,,0.00,0.0,WeatherDisplay:10.37,2013-07-20 23:11:00,
2013-07-21 01:13:00,74.9,68.7,29.96,NE,46,3.5,3.5,81,0.00,SCT,,0.00,0.0,WeatherDisplay:10.37,2013-07-20 23:13:00,
2013-07-21 01:14:00,74.9,68.7,29.96,NE,49,3.5,3.5,81,0.00,SCT,,0.00,0.0,WeatherDisplay:10.37,2013-07-20 23:14:00,
2013-07-21 01:15:00,74.9,68.7,29.96,NE,49,3.5,3.5,81,0.00,SCT,,0.00,0.0,WeatherDisplay:10.37,2013-07-20 23:15:00,
2013-07-21 01:16:00,74.9,68.7,29.96,NE,49,1.2,0.0,81,0.00,SCT,,0.00,0.0,WeatherDisplay:10.37,2013-07-20 23:16:00,
2013-07-21 01:18:00,74.8,68.6,29.96,NE,49,0.0,0.0,81,0.00,SCT,,0.00,0.0,WeatherDisplay:10.37,2013-07-20 23:18:00,
2013-07-21 01:19:00,74.8,68.6,29.96,NE,49,0.0,0.0,81,0.00,SCT,,0.00,0.0,WeatherDisplay:10.37,2013-07-20 23:19:00,
2013-07-21 01:20:00,74.8,68.6,29.96,NE,49,0.0,0.0,81,0.00,SCT,,0.00,0.0,WeatherDisplay:10.37,2013-07-20 23:20:00,
2013-07-21 01:22:00,74.8,68.6,29.96,NE,49,0.0,0.0,81,0.00,SCT,,0.00,0.0,WeatherDisplay:10.37,2013-07-20 23:22:00,
2013-07-21 01:24:00,74.7,68.5,29.96,NE,49,0.0,0.0,81,0.00,SCT,,0.00,0.0,WeatherDisplay:10.37,2013-07-20 23:24:00,
2013-07-21 01:25:00,74.7,68.5,29.96,NE,49,0.0,0.0,81,0.00,SCT,,0.00,0.0,WeatherDisplay:10.37,2013-07-20 23:25:00,
2013-07-21 01:26:00,74.7,68.5,29.96,NE,49,0.0,0.0,81,0.00,SCT,,0.00,0.0,WeatherDisplay:10.37,2013-07-20 23:26:00,
2013-07-21 01:27:00,74.7,68.5,29.96,NE,49,0.0,0.0,81,0.00,SCT,,0.00,0.0,WeatherDisplay:10.37,2013-07-20 23:27:00,
2013-07-21 01:29:00,74.6,68.4,29.97,NE,49,0.0,0.0,81,0.00,SCT,,0.00,0.0,WeatherDisplay:10.37,2013-07-20 23:29:00,
2013-07-21 01:30:00,74.6,68.4,29.97,NE,49,0.0,0.0,81,0.00,SCT,,0.00,0.0,WeatherDisplay:10.37,2013-07-20 23:30:00,
2013-07-21 01:31:00,74.6,68.4,29.96,NE,49,0.0,0.0,81,0.00,SCT,,0.00,0.0,WeatherDisplay:10.37,2013-07-20 23:31:00,
2013-07-21 01:32:00,74.6,68.4,29.96,NE,49,0.0,0.0,81,0.00,SCT,,0.00,0.0,WeatherDisplay:10.37,2013-07-20 23:32:00,
2013-07-21 01:35:00,74.6,68.4,29.97,NE,49,0.0,0.0,81,0.00,SCT,,0.00,0.0,WeatherDisplay:10.37,2013-07-20 23:35:00,
2013-07-21 01:37:00,74.5,68.3,29.97,NE,49,0.0,0.0,81,0.00,SCT,,0.00,0.0,WeatherDisplay:10.37,2013-07-20 23:37:00,
2013-07-21 01:40:00,74.5,68.6,29.97,NE,49,0.0,0.0,82,0.00,SCT,,0.00,0.0,WeatherDisplay:10.37,2013-07-20 23:40:00,
2013-07-21 01:41:00,74.5,68.6,29.96,NE,49,0.0,0.0,82,0.00,SCT,,0.00,0.0,WeatherDisplay:10.37,2013-07-20 23:41:00,
2013-07-21 01:43:00,74.5,68.6,29.97,NE,49,0.0,0.0,82,0.00,SCT,,0.00,0.0,WeatherDisplay:10.37,2013-07-20 23:43:00,
2013-07-21 01:44:00,74.5,68.6,29.97,NE,49,0.0,0.0,82,0.00,SCT,,0.00,0.0,WeatherDisplay:10.37,2013-07-20 23:44:00,
2013-07-21 01:45:00,74.5,68.6,29.97,NE,49,0.0,0.0,82,0.00,SCT,,0.00,0.0,WeatherDisplay:10.37,2013-07-20 23:45:00,
2013-07-21 01:47:00,74.4,68.5,29.97,NE,49,0.0,0.0,82,0.00,SCT,,0.00,0.0,WeatherDisplay:10.37,2013-07-20 23:47:00,
2013-07-21 01:48:00,74.4,68.5,29.97,NE,49,0.0,0.0,82,0.00,SCT,,0.00,0.0,WeatherDisplay:10.37,2013-07-20 23:48:00,
2013-07-21 01:49:00,74.4,68.5,29.96,NE,49,0.0,0.0,82,0.00,SCT,,0.00,0.0,WeatherDisplay:10.37,2013-07-20 23:49:00,
2013-07-21 01:50:00,74.4,68.5,29.97,NE,49,0.0,0.0,82,0.00,SCT,,0.00,0.0,WeatherDisplay:10.37,2013-07-20 23:50:00,
2013-07-21 01:53:00,74.3,68.4,29.97,NE,49,0.0,0.0,82,0.00,SCT,,0.00,0.0,WeatherDisplay:10.37,2013-07-20 23:53:00,
2013-07-21 01:54:00,74.3,68.4,29.96,NE,49,0.0,0.0,82,0.00,SCT,,0.00,0.0,WeatherDisplay:10.37,2013-07-20 23:54:00,
2013-07-21 01:55:00,74.3,68.4,29.96,NE,49,0.0,0.0,82,0.00,SCT,,0.00,0.0,WeatherDisplay:10.37,2013-07-20 23:55:00,
2013-07-21 01:56:00,74.3,68.4,29.96,NE,49,0.0,0.0,82,0.00,SCT,,0.00,0.0,WeatherDisplay:10.37,2013-07-20 23:56:00,
2013-07-21 01:58:00,74.3,68.4,29.96,NE,49,0.0,0.0,82,0.00,SCT,,0.00,0.0,WeatherDisplay:10.37,2013-07-20 23:58:00,
2013-07-21 01:59:00,74.2,68.3,29.96,NE,49,0.0,0.0,82,0.00,SCT,,0.00,0.0,WeatherDisplay:10.37,2013-07-20 23:59:00,
2013-07-21 02:00:00,74.2,68.3,29.96,NE,49,0.0,0.0,82,0.00,SCT,,0.00,0.0,WeatherDisplay:10.37,2013-07-21 00:00:00,
2013-07-21 02:01:00,74.2,68.3,29.96,NE,49,0.0,0.0,82,0.00,SCT,,0.00,0.0,WeatherDisplay:10.37,2013-07-21 00:01:00,
2013-07-21 02:05:00,74.2,68.3,29.96,NE,49,0.0,0.0,82,0.00,SCT,,0.00,0.0,WeatherDisplay:10.37,2013-07-21 00:05:00,
2013-07-21 02:06:00,74.1,68.3,29.96,NE,49,0.0,0.0,82,0.00,SCT,,0.00,0.0,WeatherDisplay:10.37,2013-07-21 00:06:00,
2013-07-21 02:10:00,74.1,68.3,29.96,NE,49,0.0,0.0,82,0.00,SCT,,0.00,0.0,WeatherDisplay:10.37,2013-07-21 00:10:00,
2013-07-21 02:12:00,74.1,68.3,29.97,NE,49,0.0,0.0,82,0.00,SCT,,0.00,0.0,WeatherDisplay:10.37,2013-07-21 00:12:00,
2013-07-21 02:14:00,74.1,68.3,29.97,NE,49,0.0,0.0,82,0.00,SCT,,0.00,0.0,WeatherDisplay:10.37,2013-07-21 00:14:00,
2013-07-21 02:15:00,74.1,68.3,29.97,NE,49,0.0,0.0,82,0.00,SCT,,0.00,0.0,WeatherDisplay:10.37,2013-07-21 00:15:00,
2013-07-21 02:16:00,74.1,68.3,29.96,NE,49,0.0,0.0,82,0.00,SCT,,0.00,0.0,WeatherDisplay:10.37,2013-07-21 00:16:00,
2013-07-21 02:17:00,74.1,68.3,29.96,NE,49,0.0,0.0,82,0.00,SCT,,0.00,0.0,WeatherDisplay:10.37,2013-07-21 00:17:00,
2013-07-21 02:19:00,74.0,68.2,29.97,NE,49,0.0,0.0,82,0.00,SCT,,0.00,0.0,WeatherDisplay:10.37,2013-07-21 00:19:00,
2013-07-21 02:20:00,74.0,68.2,29.97,NE,49,0.0,0.0,82,0.00,SCT,,0.00,0.0,WeatherDisplay:10.37,2013-07-21 00:20:00,
2013-07-21 02:22:00,74.0,68.2,29.97,NE,49,0.0,0.0,82,0.00,SCT,,0.00,0.0,WeatherDisplay:10.37,2013-07-21 00:22:00,
2013-07-21 02:24:00,73.9,68.1,29.97,NE,49,3.0,3.0,82,0.00,SCT,,0.00,0.0,WeatherDisplay:10.37,2013-07-21 00:24:00,
2013-07-21 02:25:00,73.9,68.1,29.96,NE,49,3.5,3.5,82,0.00,SCT,,0.00,0.0,WeatherDisplay:10.37,2013-07-21 00:25:00,
2013-07-21 02:26:00,73.9,68.1,29.97,NE,49,3.5,3.5,82,0.00,SCT,,0.00,0.0,WeatherDisplay:10.37,2013-07-21 00:26:00,
2013-07-21 02:27:00,73.8,68.3,29.96,NE,43,4.0,4.0,83,0.00,SCT,,0.00,0.0,WeatherDisplay:10.37,2013-07-21 00:27:00,
2013-07-21 02:29:00,73.8,68.3,29.96,NE,44,3.5,3.5,83,0.00,SCT,,0.00,0.0,WeatherDisplay:10.37,2013-07-21 00:29:00,
2013-07-21 02:31:00,73.8,68.3,29.96,NE,43,2.3,2.3,83,0.00,SCT,,0.00,0.0,WeatherDisplay:10.37,2013-07-21 00:31:00,
2013-07-21 02:32:00,73.8,68.3,29.96,NE,43,0.0,0.0,83,0.00,SCT,,0.00,0.0,WeatherDisplay:10.37,2013-07-21 00:32:00,
2013-07-21 02:35:00,73.8,68.3,29.96,NE,43,0.0,0.0,83,0.00,SCT,,0.00,0.0,WeatherDisplay:10.37,2013-07-21 00:35:00,
2013-07-21 02:36:00,73.8,68.3,29.96,NE,43,0.0,0.0,83,0.00,SCT,,0.00,0.0,WeatherDisplay:10.37,2013-07-21 00:36:00,
2013-07-21 02:37:00,73.8,68.3,29.96,NE,43,0.0,0.0,83,0.00,SCT,,0.00,0.0,WeatherDisplay:10.37,2013-07-21 00:37:00,
2013-07-21 02:38:00,73.8,68.3,29.96,NE,43,0.0,0.0,83,0.00,SCT,,0.00,0.0,WeatherDisplay:10.37,2013-07-21 00:38:00,
2013-07-21 02:40:00,73.7,68.2,29.96,NE,43,0.0,0.0,83,0.00,SCT,,0.00,0.0,WeatherDisplay:10.37,2013-07-21 00:40:00,
2013-07-21 02:41:00,73.7,68.2,29.96,NE,43,0.0,0.0,83,0.00,SCT,,0.00,0.0,WeatherDisplay:10.37,2013-07-21 00:41:00,
2013-07-21 02:42:00,73.7,68.2,29.96,NE,43,0.0,0.0,83,0.00,SCT,,0.00,0.0,WeatherDisplay:10.37,2013-07-21 00:42:00,
2013-07-21 02:44:00,73.7,68.2,29.97,NE,45,0.0,0.0,83,0.00,SCT,,0.00,0.0,WeatherDisplay:10.37,2013-07-21 00:44:00,
2013-07-21 02:46:00,73.7,68.2,29.97,NE,46,3.5,3.5,83,0.00,SCT,,0.00,0.0,WeatherDisplay:10.37,2013-07-21 00:46:00,
2013-07-21 02:48:00,73.7,68.2,29.96,NE,49,1.2,0.0,83,0.00,SCT,,0.00,0.0,WeatherDisplay:10.37,2013-07-21 00:48:00,
2013-07-21 02:49:00,73.6,68.1,29.96,NE,44,1.2,1.2,83,0.00,SCT,,0.00,0.0,WeatherDisplay:10.37,2013-07-21 00:49:00,
2013-07-21 02:51:00,73.6,68.1,29.96,NE,36,3.5,3.5,83,0.00,SCT,,0.00,0.0,WeatherDisplay:10.37,2013-07-21 00:51:00,
2013-07-21 02:53:00,73.6,68.1,29.96,North,355,3.5,3.5,83,0.00,SCT,,0.00,0.0,WeatherDisplay:10.37,2013-07-21 00:53:00,
2013-07-21 02:54:00,73.6,68.1,29.96,North,355,3.5,3.5,83,0.00,SCT,,0.00,0.0,WeatherDisplay:10.37,2013-07-21 00:54:00,
2013-07-21 02:56:00,73.6,68.1,29.96,NE,42,0.0,0.0,83,0.00,SCT,,0.00,0.0,WeatherDisplay:10.37,2013-07-21 00:56:00,
2013-07-21 02:57:00,73.6,68.1,29.96,NE,42,0.0,0.0,83,0.00,SCT,,0.00,0.0,WeatherDisplay:10.37,2013-07-21 00:57:00,
2013-07-21 02:59:00,73.6,68.1,29.96,NE,41,0.0,0.0,83,0.00,SCT,,0.00,0.0,WeatherDisplay:10.37,2013-07-21 00:59:00,
2013-07-21 03:00:00,73.6,68.1,29.96,NE,40,1.2,1.2,83,0.00,SCT,,0.00,0.0,WeatherDisplay:10.37,2013-07-21 01:00:00,
2013-07-21 03:02:00,73.5,68.0,29.96,NNE,30,0.0,0.0,83,0.00,SCT,,0.00,0.0,WeatherDisplay:10.37,2013-07-21 01:02:00,
2013-07-21 03:05:00,73.5,68.0,29.96,North,360,0.0,0.0,83,0.00,SCT,,0.00,0.0,WeatherDisplay:10.37,2013-07-21 01:05:00,
2013-07-21 03:08:00,73.4,67.9,29.96,North,5,0.0,0.0,83,0.00,SCT,,0.00,0.0,WeatherDisplay:10.37,2013-07-21 01:08:00,
2013-07-21 03:11:00,73.4,67.9,29.96,North,11,3.5,3.5,83,0.00,SCT,,0.00,0.0,WeatherDisplay:10.37,2013-07-21 01:11:00,
2013-07-21 03:13:00,73.4,67.9,29.96,NNE,33,2.3,2.3,83,0.00,SCT,,0.00,0.0,WeatherDisplay:10.37,2013-07-21 01:13:00,
2013-07-21 03:14:00,73.4,67.9,29.96,NNE,33,2.3,2.3,83,0.00,SCT,,0.00,0.0,WeatherDisplay:10.37,2013-07-21 01:14:00,
2013-07-21 03:17:00,73.3,67.5,29.96,NNE,33,0.0,0.0,82,0.00,SCT,,0.00,0.0,WeatherDisplay:10.37,2013-07-21 01:17:00,
2013-07-21 03:18:00,73.3,67.5,29.96,NNE,33,0.0,0.0,82,0.00,SCT,,0.00,0.0,WeatherDisplay:10.37,2013-07-21 01:18:00,
2013-07-21 03:19:00,73.3,67.5,29.96,NE,36,0.0,0.0,82,0.00,SCT,,0.00,0.0,WeatherDisplay:10.37,2013-07-21 01:19:00,
2013-07-21 03:20:00,73.3,67.5,29.96,ENE,63,0.0,0.0,82,0.00,SCT,,0.00,0.0,WeatherDisplay:10.37,2013-07-21 01:20:00,
2013-07-21 03:23:00,73.3,67.5,29.96,ENE,67,2.3,2.3,82,0.00,SCT,,0.00,0.0,WeatherDisplay:10.37,2013-07-21 01:23:00,
2013-07-21 03:24:00,73.2,67.4,29.96,ENE,67,0.0,0.0,82,0.00,SCT,,0.00,0.0,WeatherDisplay:10.37,2013-07-21 01:24:00,
2013-07-21 03:25:00,73.3,67.5,29.95,ENE,73,3.0,3.0,82,0.00,SCT,,0.00,0.0,WeatherDisplay:10.37,2013-07-21 01:25:00,
2013-07-21 03:28:00,73.3,67.5,29.95,ENE,78,3.5,3.5,82,0.00,SCT,,0.00,0.0,WeatherDisplay:10.37,2013-07-21 01:28:00,
2013-07-21 03:29:00,73.3,67.5,29.96,ENE,61,3.5,3.5,82,0.00,SCT,,0.00,0.0,WeatherDisplay:10.37,2013-07-21 01:29:00,
2013-07-21 03:30:00,73.3,67.5,29.96,ENE,76,3.5,3.5,82,0.00,SCT,,0.00,0.0,WeatherDisplay:10.37,2013-07-21 01:30:00,
2013-07-21 03:32:00,73.3,67.5,29.95,ENE,69,3.5,3.5,82,0.00,SCT,,0.00,0.0,WeatherDisplay:10.37,2013-07-21 01:32:00,
2013-07-21 03:34:00,73.3,67.5,29.96,NE,49,4.6,4.6,82,0.00,SCT,,0.00,0.0,WeatherDisplay:10.37,2013-07-21 01:34:00,
2013-07-21 03:35:00,73.3,67.5,29.96,NE,55,4.6,4.6,82,0.00,SCT,,0.00,0.0,WeatherDisplay:10.37,2013-07-21 01:35:00,
2013-07-21 03:37:00,73.3,67.5,29.96,East,85,3.5,3.5,82,0.00,SCT,,0.00,0.0,WeatherDisplay:10.37,2013-07-21 01:37:00,
2013-07-21 03:39:00,73.3,67.5,29.96,NE,38,2.0,2.0,82,0.00,SCT,,0.00,0.0,WeatherDisplay:10.37,2013-07-21 01:39:00,
2013-07-21 03:40:00,73.3,67.5,29.96,NNE,26,3.5,3.5,82,0.00,SCT,,0.00,0.0,WeatherDisplay:10.37,2013-07-21 01:40:00,
2013-07-21 03:43:00,73.3,67.5,29.96,NNE,26,3.5,3.5,82,0.00,SCT,,0.00,0.0,WeatherDisplay:10.37,2013-07-21 01:43:00,
2013-07-21 03:46:00,73.2,67.0,29.96,NNE,28,3.5,3.5,81,0.00,SCT,,0.00,0.0,WeatherDisplay:10.37,2013-07-21 01:46:00,
2013-07-21 03:49:00,73.3,67.1,29.96,NNE,32,3.5,3.5,81,0.00,SCT,,0.00,0.0,WeatherDisplay:10.37,2013-07-21 01:49:00,
2013-07-21 03:51:00,73.3,67.1,29.96,NNE,26,1.0,1.0,81,0.00,SCT,,0.00,0.0,WeatherDisplay:10.37,2013-07-21 01:51:00,
2013-07-21 03:52:00,73.3,67.1,29.96,NNE,26,2.3,2.3,81,0.00,SCT,,0.00,0.0,WeatherDisplay:10.37,2013-07-21 01:52:00,
2013-07-21 03:54:00,73.3,67.1,29.96,NE,46,3.5,3.5,81,0.00,SCT,,0.00,0.0,WeatherDisplay:10.37,2013-07-21 01:54:00,
2013-07-21 03:57:00,73.3,67.1,29.96,NE,46,4.6,4.6,81,0.00,SCT,,0.00,0.0,WeatherDisplay:10.37,2013-07-21 01:57:00,
2013-07-21 04:01:00,73.2,66.7,29.96,NE,40,1.2,0.0,80,0.00,SCT,,0.00,0.0,WeatherDisplay:10.37,2013-07-21 02:01:00,
2013-07-21 04:02:00,73.2,66.7,29.96,NE,41,0.0,0.0,80,0.00,SCT,,0.00,0.0,WeatherDisplay:10.37,2013-07-21 02:02:00,
2013-07-21 04:03:00,73.2,66.7,29.96,NE,41,0.0,0.0,80,0.00,SCT,,0.00,0.0,WeatherDisplay:10.37,2013-07-21 02:03:00,
2013-07-21 04:07:00,73.3,66.8,29.96,NE,52,0.0,0.0,80,0.00,SCT,,0.00,0.0,WeatherDisplay:10.37,2013-07-21 02:07:00,
2013-07-21 04:08:00,73.3,66.8,29.96,NE,49,3.0,3.0,80,0.00,SCT,,0.00,0.0,WeatherDisplay:10.37,2013-07-21 02:08:00,
2013-07-21 04:09:00,73.3,66.8,29.96,NE,49,3.5,3.5,80,0.00,SCT,,0.00,0.0,WeatherDisplay:10.37,2013-07-21 02:09:00,
2013-07-21 04:12:00,73.3,66.4,29.96,NE,48,3.5,3.5,79,0.00,SCT,,0.00,0.0,WeatherDisplay:10.37,2013-07-21 02:12:00,
2013-07-21 04:14:00,73.3,66.4,29.96,NNE,33,1.2,0.0,79,0.00,SCT,,0.00,0.0,WeatherDisplay:10.37,2013-07-21 02:14:00,
2013-07-21 04:19:00,73.4,66.1,29.96,NE,41,3.5,3.5,78,0.00,SCT,,0.00,0.0,WeatherDisplay:10.37,2013-07-21 02:19:00,
2013-07-21 04:20:00,73.4,66.1,29.96,NE,42,3.5,3.5,78,0.00,SCT,,0.00,0.0,WeatherDisplay:10.37,2013-07-21 02:20:00,
2013-07-21 04:24:00,73.3,66.0,29.96,NE,41,3.5,3.5,78,0.00,SCT,,0.00,0.0,WeatherDisplay:10.37,2013-07-21 02:24:00,
2013-07-21 04:25:00,73.3,65.7,29.95,NNE,29,3.5,3.5,77,0.00,SCT,,0.00,0.0,WeatherDisplay:10.37,2013-07-21 02:25:00,
2013-07-21 04:29:00,73.2,65.6,29.96,ENE,58,3.5,3.5,77,0.00,SCT,,0.00,0.0,WeatherDisplay:10.37,2013-07-21 02:29:00,
2013-07-21 04:31:00,73.2,65.2,29.96,NE,55,5.0,5.0,76,0.00,SCT,,0.00,0.0,WeatherDisplay:10.37,2013-07-21 02:31:00,
2013-07-21 04:34:00,73.3,65.3,29.95,NE,54,5.8,5.8,76,0.00,SCT,,0.00,0.0,WeatherDisplay:10.37,2013-07-21 02:34:00,
2013-07-21 04:35:00,73.3,65.3,29.95,NE,56,4.6,4.6,76,0.00,SCT,,0.00,0.0,WeatherDisplay:10.37,2013-07-21 02:35:00,
2013-07-21 04:36:00,73.3,65.3,29.96,ENE,66,6.9,6.9,76,0.00,SCT,,0.00,0.0,WeatherDisplay:10.37,2013-07-21 02:36:00,
2013-07-21 04:37:00,73.3,65.3,29.95,ENE,61,7.0,7.0,76,0.00,SCT,,0.00,0.0,WeatherDisplay:10.37,2013-07-21 02:37:00,
2013-07-21 04:40:00,73.4,65.0,29.95,East,82,8.1,8.1,75,0.00,SCT,,0.00,0.0,WeatherDisplay:10.37,2013-07-21 02:40:00,
2013-07-21 04:41:00,73.4,65.0,29.96,ENE,66,8.1,8.1,75,0.00,SCT,,0.00,0.0,WeatherDisplay:10.37,2013-07-21 02:41:00,
2013-07-21 04:42:00,73.4,65.0,29.96,ENE,69,4.0,4.0,75,0.00,SCT,,0.00,0.0,WeatherDisplay:10.37,2013-07-21 02:42:00,
2013-07-21 04:43:00,73.4,65.0,29.96,ENE,67,6.9,6.9,75,0.00,SCT,,0.00,0.0,WeatherDisplay:10.37,2013-07-21 02:43:00,
2013-07-21 04:45:00,73.5,65.1,29.95,NE,42,8.1,8.1,75,0.00,SCT,,0.00,0.0,WeatherDisplay:10.37,2013-07-21 02:45:00,
2013-07-21 04:47:00,73.5,65.1,29.95,ENE,59,8.1,8.1,75,0.00,SCT,,0.00,0.0,WeatherDisplay:10.37,2013-07-21 02:47:00,
2013-07-21 04:48:00,73.5,65.1,29.95,NNE,32,6.9,6.9,75,0.00,SCT,,0.00,0.0,WeatherDisplay:10.37,2013-07-21 02:48:00,
2013-07-21 04:52:00,73.6,64.8,29.95,ENE,57,6.9,6.9,74,0.00,SCT,,0.00,0.0,WeatherDisplay:10.37,2013-07-21 02:52:00,
2013-07-21 04:53:00,73.6,64.8,29.95,ENE,59,5.8,5.8,74,0.00,SCT,,0.00,0.0,WeatherDisplay:10.37,2013-07-21 02:53:00,
2013-07-21 04:54:00,73.6,64.8,29.95,NE,48,3.5,3.5,74,0.00,SCT,,0.00,0.0,WeatherDisplay:10.37,2013-07-21 02:54:00,
2013-07-21 04:57:00,73.6,65.2,29.95,NE,52,5.0,5.0,75,0.00,SCT,,0.00,0.0,WeatherDisplay:10.37,2013-07-21 02:57:00,
2013-07-21 04:58:00,73.6,65.2,29.95,ENE,59,5.0,5.0,75,0.00,SCT,,0.00,0.0,WeatherDisplay:10.37,2013-07-21 02:58:00,
2013-07-21 04:59:00,73.6,65.2,29.95,NE,40,6.9,6.9,75,0.00,SCT,,0.00,0.0,WeatherDisplay:10.37,2013-07-21 02:59:00,
2013-07-21 05:03:00,73.5,65.1,29.95,NE,44,6.9,6.9,75,0.00,SCT,,0.00,0.0,WeatherDisplay:10.37,2013-07-21 03:03:00,
2013-07-21 05:04:00,73.5,65.1,29.95,NE,45,4.6,4.6,75,0.00,SCT,,0.00,0.0,WeatherDisplay:10.37,2013-07-21 03:04:00,
2013-07-21 05:09:00,73.5,65.1,29.95,ENE,61,3.5,3.5,75,0.00,SCT,,0.00,0.0,WeatherDisplay:10.37,2013-07-21 03:09:00,
2013-07-21 05:10:00,73.5,65.1,29.95,ENE,66,3.5,3.5,75,0.00,SCT,,0.00,0.0,WeatherDisplay:10.37,2013-07-21 03:10:00,
2013-07-21 05:14:00,73.6,65.2,29.95,NE,56,3.5,3.5,75,0.00,SCT,,0.00,0.0,WeatherDisplay:10.37,2013-07-21 03:14:00,
2013-07-21 05:15:00,73.6,65.2,29.95,NE,53,6.0,6.0,75,0.00,SCT,,0.00,0.0,WeatherDisplay:10.37,2013-07-21 03:15:00,
2013-07-21 05:19:00,73.6,65.2,29.95,ENE,68,0.0,0.0,75,0.00,SCT,,0.00,0.0,WeatherDisplay:10.37,2013-07-21 03:19:00,
2013-07-21 05:20:00,73.6,65.2,29.95,NE,51,3.5,3.5,75,0.00,SCT,,0.00,0.0,WeatherDisplay:10.37,2013-07-21 03:20:00,
2013-07-21 05:21:00,73.6,65.2,29.95,ENE,70,5.0,5.0,75,0.00,SCT,,0.00,0.0,WeatherDisplay:10.37,2013-07-21 03:21:00,
2013-07-21 05:22:00,73.6,64.8,29.95,ENE,59,4.6,4.6,74,0.00,SCT,,0.00,0.0,WeatherDisplay:10.37,2013-07-21 03:22:00,
2013-07-21 05:24:00,73.6,64.8,29.95,ENE,59,3.5,3.5,74,0.00,SCT,,0.00,0.0,WeatherDisplay:10.37,2013-07-21 03:24:00,
2013-07-21 05:25:00,73.6,64.8,29.95,ENE,72,3.5,3.5,74,0.00,SCT,,0.00,0.0,WeatherDisplay:10.37,2013-07-21 03:25:00,
2013-07-21 05:26:00,73.6,64.8,29.95,East,87,3.5,3.5,74,0.00,SCT,,0.00,0.0,WeatherDisplay:10.37,2013-07-21 03:26:00,
2013-07-21 05:28:00,73.6,64.8,29.95,ENE,62,0.0,0.0,74,0.00,SCT,,0.00,0.0,WeatherDisplay:10.37,2013-07-21 03:28:00,
2013-07-21 05:30:00,73.6,64.8,29.95,NE,46,6.9,6.9,74,0.00,SCT,,0.00,0.0,WeatherDisplay:10.37,2013-07-21 03:30:00,
2013-07-21 05:31:00,73.6,64.8,29.95,NE,46,4.6,4.6,74,0.00,SCT,,0.00,0.0,WeatherDisplay:10.37,2013-07-21 03:31:00,
2013-07-21 05:35:00,73.6,64.8,29.95,NE,51,3.5,3.5,74,0.00,SCT,,0.00,0.0,WeatherDisplay:10.37,2013-07-21 03:35:00,
2013-07-21 05:36:00,73.6,64.8,29.95,NE,53,0.0,0.0,74,0.00,SCT,,0.00,0.0,WeatherDisplay:10.37,2013-07-21 03:36:00,
2013-07-21 05:37:00,73.6,64.8,29.95,NE,53,0.0,0.0,74,0.00,SCT,,0.00,0.0,WeatherDisplay:10.37,2013-07-21 03:37:00,
2013-07-21 05:41:00,73.6,64.8,29.95,ENE,61,4.0,4.0,74,0.00,SCT,,0.00,0.0,WeatherDisplay:10.37,2013-07-21 03:41:00,
2013-07-21 05:42:00,73.6,64.8,29.95,NE,36,4.6,4.6,74,0.00,SCT,,0.00,0.0,WeatherDisplay:10.37,2013-07-21 03:42:00,
2013-07-21 05:46:00,73.5,64.7,29.95,NE,48,4.6,4.6,74,0.00,SCT,,0.00,0.0,WeatherDisplay:10.37,2013-07-21 03:46:00,
2013-07-21 05:47:00,73.5,64.7,29.95,ENE,67,4.6,4.6,74,0.00,SCT,,0.00,0.0,WeatherDisplay:10.37,2013-07-21 03:47:00,
2013-07-21 05:52:00,73.4,64.6,29.95,ENE,67,6.9,6.9,74,0.00,SCT,,0.00,5.0,WeatherDisplay:10.37,2013-07-21 03:52:00,
2013-07-21 05:53:00,73.4,64.6,29.95,NE,55,6.9,6.9,74,0.00,SCT,,0.00,5.0,WeatherDisplay:10.37,2013-07-21 03:53:00,
2013-07-21 05:57:00,73.4,64.6,29.95,ENE,71,4.6,4.6,74,0.00,SCT,,0.00,5.0,WeatherDisplay:10.37,2013-07-21 03:57:00,
2013-07-21 05:58:00,73.4,64.6,29.95,ENE,71,4.6,4.6,74,0.00,SCT,,0.00,5.0,WeatherDisplay:10.37,2013-07-21 03:58:00,
2013-07-21 05:59:00,73.3,64.5,29.95,NNE,23,3.5,3.5,74,0.00,FEW,,0.00,7.0,WeatherDisplay:10.37,2013-07-21 03:59:00,
2013-07-21 06:01:00,73.3,64.5,29.95,NE,40,0.0,0.0,74,0.00,FEW,,0.00,9.0,WeatherDisplay:10.37,2013-07-21 04:01:00,
2013-07-21 06:02:00,73.3,64.5,29.95,ENE,62,0.0,0.0,74,0.00,FEW,,0.00,9.0,WeatherDisplay:10.37,2013-07-21 04:02:00,
2013-07-21 06:06:00,73.2,64.4,29.95,NE,37,0.0,0.0,74,0.00,FEW,,0.00,11.0,WeatherDisplay:10.37,2013-07-21 04:06:00,
2013-07-21 06:07:00,73.2,64.8,29.96,NE,44,0.0,0.0,75,0.00,FEW,,0.00,12.0,WeatherDisplay:10.37,2013-07-21 04:07:00,
2013-07-21 06:11:00,73.2,64.4,29.95,NE,49,2.0,2.0,74,0.00,FEW,,0.00,16.0,WeatherDisplay:10.37,2013-07-21 04:11:00,
2013-07-21 06:12:00,73.2,64.4,29.95,NE,49,3.5,3.5,74,0.00,FEW,,0.00,16.0,WeatherDisplay:10.37,2013-07-21 04:12:00,
2013-07-21 06:16:00,73.1,64.3,29.95,NE,48,4.0,4.0,74,0.00,FEW,,0.00,25.0,WeatherDisplay:10.37,2013-07-21 04:16:00,
2013-07-21 06:17:00,73.2,64.4,29.95,NE,49,3.5,3.5,74,0.00,FEW,,0.00,25.0,WeatherDisplay:10.37,2013-07-21 04:17:00,
2013-07-21 06:18:00,73.2,64.4,29.96,NE,46,4.0,4.0,74,0.00,FEW,,0.00,25.0,WeatherDisplay:10.37,2013-07-21 04:18:00,
2013-07-21 06:21:00,73.2,64.4,29.96,NE,47,8.1,8.1,74,0.00,FEW,,0.00,30.0,WeatherDisplay:10.37,2013-07-21 04:21:00,
2013-07-21 06:22:00,73.2,64.4,29.96,NE,54,4.6,4.6,74,0.00,FEW,,0.00,30.0,WeatherDisplay:10.37,2013-07-21 04:22:00,
2013-07-21 06:23:00,73.2,64.4,29.95,NE,54,4.6,4.6,74,0.00,FEW,,0.00,35.0,WeatherDisplay:10.37,2013-07-21 04:23:00,
2013-07-21 06:25:00,73.2,64.4,29.96,NE,50,4.6,4.6,74,0.00,FEW,,0.00,37.0,WeatherDisplay:10.37,2013-07-21 04:25:00,
2013-07-21 06:26:00,73.3,64.5,29.96,ENE,62,4.6,4.6,74,0.00,FEW,,0.00,40.0,WeatherDisplay:10.37,2013-07-21 04:26:00,
2013-07-21 06:27:00,73.3,64.5,29.96,NE,48,4.6,4.6,74,0.00,FEW,,0.00,42.0,WeatherDisplay:10.37,2013-07-21 04:27:00,
2013-07-21 06:28:00,73.3,64.5,29.96,ENE,61,3.5,3.5,74,0.00,FEW,,0.00,42.0,WeatherDisplay:10.37,2013-07-21 04:28:00,
2013-07-21 06:30:00,73.3,64.1,29.96,ENE,57,3.5,3.5,73,0.00,FEW,,0.00,46.0,WeatherDisplay:10.37,2013-07-21 04:30:00,
2013-07-21 06:32:00,73.4,64.2,29.96,NE,36,3.5,3.5,73,0.00,FEW,,0.00,47.0,WeatherDisplay:10.37,2013-07-21 04:32:00,
2013-07-21 06:33:00,73.4,64.2,29.96,NE,55,3.5,3.5,73,0.00,FEW,,0.00,51.0,WeatherDisplay:10.37,2013-07-21 04:33:00,
2013-07-21 06:35:00,73.4,64.2,29.96,ENE,67,4.0,4.0,73,0.00,FEW,,0.00,54.0,WeatherDisplay:10.37,2013-07-21 04:35:00,
2013-07-21 06:37:00,73.5,64.3,29.96,NNE,26,4.6,4.6,73,0.00,FEW,,0.00,58.0,WeatherDisplay:10.37,2013-07-21 04:37:00,
2013-07-21 06:38:00,73.5,63.9,29.96,NE,51,6.0,6.0,72,0.00,FEW,,0.00,60.0,WeatherDisplay:10.37,2013-07-21 04:38:00,
2013-07-21 06:39:00,73.6,64.0,29.96,NE,40,5.8,5.8,72,0.00,FEW,,0.00,60.0,WeatherDisplay:10.37,2013-07-21 04:39:00,
2013-07-21 06:41:00,73.6,64.0,29.96,NNE,15,3.5,3.5,72,0.00,FEW,,0.00,67.0,WeatherDisplay:10.37,2013-07-21 04:41:00,
2013-07-21 06:42:00,73.6,64.0,29.96,NE,46,3.5,3.5,72,0.00,FEW,,0.00,70.0,WeatherDisplay:10.37,2013-07-21 04:42:00,
2013-07-21 06:43:00,73.7,64.1,29.96,NNE,26,3.5,3.5,72,0.00,FEW,,0.00,72.0,WeatherDisplay:10.37,2013-07-21 04:43:00,
2013-07-21 06:45:00,73.7,64.1,29.96,North,5,4.0,4.0,72,0.00,FEW,,0.00,76.0,WeatherDisplay:10.37,2013-07-21 04:45:00,
2013-07-21 06:47:00,73.8,63.8,29.96,NE,53,3.5,3.5,71,0.00,CLR,,0.00,83.0,WeatherDisplay:10.37,2013-07-21 04:47:00,
2013-07-21 06:48:00,73.8,63.8,29.96,ENE,59,4.0,4.0,71,0.00,CLR,,0.00,83.0,WeatherDisplay:10.37,2013-07-21 04:48:00,
2013-07-21 06:49:00,73.8,63.8,29.96,NE,38,3.5,3.5,71,0.00,CLR,,0.00,90.0,WeatherDisplay:10.37,2013-07-21 04:49:00,
2013-07-21 06:50:00,73.8,63.8,29.96,NE,49,3.5,3.5,71,0.00,FEW,,0.00,90.0,WeatherDisplay:10.37,2013-07-21 04:50:00,
2013-07-21 06:51:00,73.8,63.8,29.96,NE,55,3.5,3.5,71,0.00,FEW,,0.00,95.0,WeatherDisplay:10.37,2013-07-21 04:51:00,
2013-07-21 06:53:00,73.8,63.8,29.96,NNE,29,3.5,3.5,71,0.00,CLR,,0.00,100.0,WeatherDisplay:10.37,2013-07-21 04:53:00,
2013-07-21 06:54:00,73.9,63.9,29.96,NE,48,4.6,4.6,71,0.00,CLR,,0.00,105.0,WeatherDisplay:10.37,2013-07-21 04:54:00,
2013-07-21 06:55:00,73.9,63.9,29.96,NE,51,2.3,0.0,71,0.00,CLR,,0.00,107.0,WeatherDisplay:10.37,2013-07-21 04:55:00,
2013-07-21 06:56:00,73.9,63.9,29.96,NE,40,3.0,3.0,71,0.00,CLR,,0.00,109.0,WeatherDisplay:10.37,2013-07-21 04:56:00,
2013-07-21 06:58:00,73.9,63.9,29.96,ENE,65,3.5,3.5,71,0.00,CLR,,0.00,111.0,WeatherDisplay:10.37,2013-07-21 04:58:00,
2013-07-21 06:59:00,74.0,64.0,29.96,NNE,26,3.5,3.5,71,0.00,CLR,,0.00,111.0,WeatherDisplay:10.37,2013-07-21 04:59:00,
2013-07-21 07:01:00,74.0,63.6,29.96,NNE,26,6.9,6.9,70,0.00,CLR,,0.00,111.0,WeatherDisplay:10.37,2013-07-21 05:01:00,
2013-07-21 07:03:00,74.0,63.6,29.96,NE,40,6.9,6.9,70,0.00,CLR,,0.00,81.0,WeatherDisplay:10.37,2013-07-21 05:03:00,
2013-07-21 07:05:00,74.1,63.3,29.96,NE,52,6.9,6.9,69,0.00,FEW,,0.00,70.0,WeatherDisplay:10.37,2013-07-21 05:05:00,
2013-07-21 07:06:00,74.1,63.3,29.96,NNE,30,7.0,7.0,69,0.00,FEW,,0.00,60.0,WeatherDisplay:10.37,2013-07-21 05:06:00,
2013-07-21 07:08:00,74.1,63.3,29.96,NNE,20,4.6,4.6,69,0.00,FEW,,0.00,63.0,WeatherDisplay:10.37,2013-07-21 05:08:00,
2013-07-21 07:09:00,74.1,63.3,29.96,NNE,22,4.6,4.6,69,0.00,FEW,,0.00,65.0,WeatherDisplay:10.37,2013-07-21 05:09:00,
2013-07-21 07:10:00,74.1,63.3,29.96,ENE,61,4.6,4.6,69,0.00,FEW,,0.00,65.0,WeatherDisplay:10.37,2013-07-21 05:10:00,
2013-07-21 07:11:00,74.2,63.4,29.96,NE,45,6.0,6.0,69,0.00,FEW,,0.00,67.0,WeatherDisplay:10.37,2013-07-21 05:11:00,
2013-07-21 07:14:00,74.2,63.4,29.96,NE,52,4.0,4.0,69,0.00,FEW,,0.00,67.0,WeatherDisplay:10.37,2013-07-21 05:14:00,
2013-07-21 07:15:00,74.2,63.0,29.96,ENE,59,3.5,3.5,68,0.00,FEW,,0.00,93.0,WeatherDisplay:10.37,2013-07-21 05:15:00,
2013-07-21 07:16:00,74.2,63.0,29.96,ENE,61,8.1,8.1,68,0.00,FEW,,0.00,128.0,WeatherDisplay:10.37,2013-07-21 05:16:00,
2013-07-21 07:19:00,74.2,63.0,29.96,ENE,58,6.0,6.0,68,0.00,FEW,,0.00,81.0,WeatherDisplay:10.37,2013-07-21 05:19:00,
2013-07-21 07:20:00,74.2,63.0,29.96,NE,53,10.4,10.4,68,0.00,FEW,,0.00,83.0,WeatherDisplay:10.37,2013-07-21 05:20:00,
2013-07-21 07:21:00,74.2,63.0,29.96,ENE,61,10.0,10.0,68,0.00,FEW,,0.00,84.0,WeatherDisplay:10.37,2013-07-21 05:21:00,
2013-07-21 07:25:00,74.2,63.0,29.96,NNE,17,8.0,8.0,68,0.00,FEW,,0.00,90.0,WeatherDisplay:10.37,2013-07-21 05:25:00,
2013-07-21 07:26:00,74.2,63.0,29.96,NNE,32,10.4,10.4,68,0.00,FEW,,0.00,77.0,WeatherDisplay:10.37,2013-07-21 05:26:00,
2013-07-21 07:30:00,74.2,63.0,29.96,NNE,15,8.1,8.1,68,0.00,FEW,,0.00,83.0,WeatherDisplay:10.37,2013-07-21 05:30:00,
2013-07-21 07:31:00,74.2,63.0,29.96,NE,52,5.8,5.8,68,0.00,FEW,,0.00,95.0,WeatherDisplay:10.37,2013-07-21 05:31:00,
2013-07-21 07:32:00,74.2,63.0,29.96,NE,37,5.8,5.8,68,0.00,FEW,,0.00,95.0,WeatherDisplay:10.37,2013-07-21 05:32:00,
2013-07-21 07:35:00,74.1,63.3,29.96,ENE,59,5.0,5.0,69,0.00,FEW,,0.00,183.0,WeatherDisplay:10.37,2013-07-21 05:35:00,
2013-07-21 07:36:00,74.1,63.3,29.96,NE,56,8.1,8.1,69,0.00,FEW,,0.00,183.0,WeatherDisplay:10.37,2013-07-21 05:36:00,
2013-07-21 07:37:00,74.2,63.0,29.96,ENE,61,8.1,8.1,68,0.00,FEW,,0.00,183.0,WeatherDisplay:10.37,2013-07-21 05:37:00,
2013-07-21 07:40:00,74.3,63.5,29.96,ENE,66,8.1,8.1,69,0.00,FEW,,0.00,188.0,WeatherDisplay:10.37,2013-07-21 05:40:00,
2013-07-21 07:42:00,74.3,63.1,29.96,ENE,61,10.4,10.4,68,0.00,FEW,,0.00,169.0,WeatherDisplay:10.37,2013-07-21 05:42:00,
2013-07-21 07:46:00,74.5,63.2,29.96,NE,49,11.5,11.5,68,0.00,CLR,,0.00,111.0,WeatherDisplay:10.37,2013-07-21 05:46:00,
2013-07-21 07:47:00,74.5,63.2,29.97,NE,55,10.4,10.4,68,0.00,FEW,,0.00,118.0,WeatherDisplay:10.37,2013-07-21 05:47:00,
2013-07-21 07:48:00,74.5,63.2,29.97,NE,54,6.9,6.9,68,0.00,FEW,,0.00,118.0,WeatherDisplay:10.37,2013-07-21 05:48:00,
2013-07-21 07:51:00,74.6,63.3,29.97,NNE,33,9.2,9.2,68,0.00,FEW,,0.00,100.0,WeatherDisplay:10.37,2013-07-21 05:51:00,
2013-07-21 07:52:00,74.6,63.3,29.97,NE,46,11.5,11.5,68,0.00,FEW,,0.00,97.0,WeatherDisplay:10.37,2013-07-21 05:52:00,
2013-07-21 07:53:00,74.6,63.3,29.97,NE,53,11.5,11.5,68,0.00,FEW,,0.00,97.0,WeatherDisplay:10.37,2013-07-21 05:53:00,
2013-07-21 07:56:00,74.5,63.2,29.97,ENE,62,11.5,11.5,68,0.00,FEW,,0.00,95.0,WeatherDisplay:10.37,2013-07-21 05:56:00,
2013-07-21 07:58:00,74.5,63.2,29.96,ENE,65,10.0,10.0,68,0.00,FEW,,0.00,111.0,WeatherDisplay:10.37,2013-07-21 05:58:00,
2013-07-21 07:59:00,74.5,62.8,29.97,ENE,67,10.4,10.4,67,0.00,FEW,,0.00,98.0,WeatherDisplay:10.37,2013-07-21 05:59:00,
2013-07-21 08:02:00,74.5,63.2,29.96,NE,48,11.5,11.5,68,0.00,FEW,,0.00,98.0,WeatherDisplay:10.37,2013-07-21 06:02:00,
2013-07-21 08:03:00,74.5,63.2,29.97,NE,39,10.4,10.4,68,0.00,FEW,,0.00,111.0,WeatherDisplay:10.37,2013-07-21 06:03:00,
2013-07-21 08:04:00,74.5,63.2,29.97,ENE,59,9.2,9.2,68,0.00,FEW,,0.00,200.0,WeatherDisplay:10.37,2013-07-21 06:04:00,
2013-07-21 08:07:00,74.5,63.2,29.97,NE,38,11.5,11.5,68,0.00,FEW,,0.00,290.0,WeatherDisplay:10.37,2013-07-21 06:07:00,
2013-07-21 08:08:00,74.6,63.3,29.97,NE,51,10.4,10.4,68,0.00,FEW,,0.00,290.0,WeatherDisplay:10.37,2013-07-21 06:08:00,
2013-07-21 08:09:00,74.6,63.3,29.97,ENE,63,10.4,10.4,68,0.00,FEW,,0.00,237.0,WeatherDisplay:10.37,2013-07-21 06:09:00,
2013-07-21 08:10:00,74.6,63.3,29.97,NE,41,8.1,8.1,68,0.00,FEW,,0.00,211.0,WeatherDisplay:10.37,2013-07-21 06:10:00,
2013-07-21 08:12:00,74.6,63.3,29.97,NE,48,10.4,10.4,68,0.00,FEW,,0.00,130.0,WeatherDisplay:10.37,2013-07-21 06:12:00,
2013-07-21 08:13:00,74.7,63.0,29.97,NE,41,9.2,9.2,67,0.00,FEW,,0.00,100.0,WeatherDisplay:10.37,2013-07-21 06:13:00,
2013-07-21 08:14:00,74.7,63.0,29.97,NE,51,8.1,8.1,67,0.00,FEW,,0.00,100.0,WeatherDisplay:10.37,2013-07-21 06:14:00,
2013-07-21 08:15:00,74.8,63.1,29.97,NE,47,6.0,6.0,67,0.00,FEW,,0.00,100.0,WeatherDisplay:10.37,2013-07-21 06:15:00,
2013-07-21 08:18:00,75.0,63.3,29.97,ENE,60,5.8,5.8,67,0.00,FEW,,0.00,98.0,WeatherDisplay:10.37,2013-07-21 06:18:00,
2013-07-21 08:19:00,75.1,63.4,29.97,NE,39,6.0,6.0,67,0.00,FEW,,0.00,98.0,WeatherDisplay:10.37,2013-07-21 06:19:00,
2013-07-21 08:20:00,75.1,63.4,29.97,NE,54,5.8,5.8,67,0.00,FEW,,0.00,98.0,WeatherDisplay:10.37,2013-07-21 06:20:00,
2013-07-21 08:23:00,75.3,63.6,29.97,NE,50,6.9,6.9,67,0.00,SCT,,0.00,97.0,WeatherDisplay:10.37,2013-07-21 06:23:00,
2013-07-21 08:24:00,75.3,63.6,29.97,NE,43,6.9,6.9,67,0.00,SCT,,0.00,97.0,WeatherDisplay:10.37,2013-07-21 06:24:00,
2013-07-21 08:25:00,75.4,63.7,29.97,NNE,26,5.8,5.8,67,0.00,SCT,,0.00,97.0,WeatherDisplay:10.37,2013-07-21 06:25:00,
2013-07-21 08:26:00,75.5,63.8,29.97,NNE,15,3.5,3.5,67,0.00,SCT,,0.00,97.0,WeatherDisplay:10.37,2013-07-21 06:26:00,
2013-07-21 08:28:00,75.7,64.0,29.97,ENE,65,3.5,3.5,67,0.00,SCT,,0.00,98.0,WeatherDisplay:10.37,2013-07-21 06:28:00,
2013-07-21 08:29:00,75.8,64.1,29.97,NE,44,3.5,3.5,67,0.00,SCT,,0.00,98.0,WeatherDisplay:10.37,2013-07-21 06:29:00,
2013-07-21 08:30:00,75.9,63.7,29.97,NE,54,8.1,8.1,66,0.00,SCT,,0.00,97.0,WeatherDisplay:10.37,2013-07-21 06:30:00,
2013-07-21 08:31:00,75.9,63.7,29.97,ENE,70,6.9,6.9,66,0.00,SCT,,0.00,97.0,WeatherDisplay:10.37,2013-07-21 06:31:00,
2013-07-21 08:34:00,76.0,63.8,29.97,NE,56,5.8,5.8,66,0.00,SCT,,0.00,98.0,WeatherDisplay:10.37,2013-07-21 06:34:00,
2013-07-21 08:35:00,76.1,63.9,29.97,ENE,63,5.0,5.0,66,0.00,SCT,,0.00,100.0,WeatherDisplay:10.37,2013-07-21 06:35:00,
2013-07-21 08:36:00,76.2,64.0,29.97,East,86,6.9,6.9,66,0.00,SCT,,0.00,98.0,WeatherDisplay:10.37,2013-07-21 06:36:00,
2013-07-21 08:39:00,76.4,63.8,29.97,ENE,76,3.5,4.0,65,0.00,SCT,,0.00,98.0,WeatherDisplay:10.37,2013-07-21 06:39:00,
2013-07-21 08:40:00,76.5,63.9,29.97,NE,43,5.8,5.8,65,0.00,SCT,,0.00,98.0,WeatherDisplay:10.37,2013-07-21 06:40:00,
2013-07-21 08:42:00,76.6,64.0,29.97,East,90,5.8,5.8,65,0.00,SCT,,0.00,97.0,WeatherDisplay:10.37,2013-07-21 06:42:00,
2013-07-21 08:45:00,77.0,63.9,29.97,East,82,6.9,6.9,64,0.00,SCT,,0.00,100.0,WeatherDisplay:10.37,2013-07-21 06:45:00,
2013-07-21 08:47:00,77.2,64.1,29.97,NNE,19,5.0,5.0,64,0.00,SCT,,0.00,102.0,WeatherDisplay:10.37,2013-07-21 06:47:00,
2013-07-21 08:50:00,77.4,64.3,29.97,NE,42,8.1,8.1,64,0.00,SCT,,0.00,102.0,WeatherDisplay:10.37,2013-07-21 06:50:00,
2013-07-21 08:51:00,77.4,64.3,29.97,NNE,23,8.1,8.1,64,0.00,SCT,,0.00,102.0,WeatherDisplay:10.37,2013-07-21 06:51:00,
2013-07-21 08:52:00,77.5,64.4,29.97,ENE,61,5.0,5.0,64,0.00,SCT,,0.00,102.0,WeatherDisplay:10.37,2013-07-21 06:52:00,
2013-07-21 08:53:00,77.6,64.5,29.97,NE,36,6.9,6.9,64,0.00,SCT,,0.00,102.0,WeatherDisplay:10.37,2013-07-21 06:53:00,
2013-07-21 08:56:00,77.7,64.5,29.97,North,5,3.5,3.5,64,0.00,SCT,,0.00,102.0,WeatherDisplay:10.37,2013-07-21 06:56:00,
2013-07-21 08:57:00,77.8,64.6,29.97,North,9,3.5,3.5,64,0.00,SCT,,0.00,100.0,WeatherDisplay:10.37,2013-07-21 06:57:00,
2013-07-21 08:58:00,77.8,64.6,29.97,North,5,6.0,6.0,64,0.00,SCT,,0.00,100.0,WeatherDisplay:10.37,2013-07-21 06:58:00,
2013-07-21 09:01:00,77.9,64.7,29.97,North,9,4.6,4.6,64,0.00,SCT,,0.00,102.0,WeatherDisplay:10.37,2013-07-21 07:01:00,
2013-07-21 09:02:00,77.9,64.7,29.97,NNE,19,5.0,5.0,64,0.00,SCT,,0.00,102.0,WeatherDisplay:10.37,2013-07-21 07:02:00,
2013-07-21 09:03:00,78.0,64.8,29.97,North,351,3.5,3.5,64,0.00,SCT,,0.00,102.0,WeatherDisplay:10.37,2013-07-21 07:03:00,
2013-07-21 09:06:00,78.2,64.6,29.97,North,5,3.5,3.5,63,0.00,SCT,,0.00,104.0,WeatherDisplay:10.37,2013-07-21 07:06:00,
2013-07-21 09:07:00,78.2,64.6,29.97,NNE,20,3.5,3.5,63,0.00,SCT,,0.00,104.0,WeatherDisplay:10.37,2013-07-21 07:07:00,
2013-07-21 09:09:00,78.3,64.7,29.97,NNE,32,6.0,6.0,63,0.00,SCT,,0.00,104.0,WeatherDisplay:10.37,2013-07-21 07:09:00,
2013-07-21 09:11:00,78.5,64.9,29.97,ENE,64,8.0,8.0,63,0.00,SCT,,0.00,104.0,WeatherDisplay:10.37,2013-07-21 07:11:00,
2013-07-21 09:12:00,78.6,64.9,29.97,NE,45,8.1,8.1,63,0.00,SCT,,0.00,104.0,WeatherDisplay:10.37,2013-07-21 07:12:00,
2013-07-21 09:15:00,78.6,64.5,29.97,East,92,9.2,9.2,62,0.00,SCT,,0.00,105.0,WeatherDisplay:10.37,2013-07-21 07:15:00,
2013-07-21 09:17:00,78.6,64.5,29.97,North,9,6.9,6.9,62,0.00,SCT,,0.00,105.0,WeatherDisplay:10.37,2013-07-21 07:17:00,
2013-07-21 09:20:00,78.8,64.7,29.97,NE,48,6.9,6.9,62,0.00,SCT,,0.00,272.0,WeatherDisplay:10.37,2013-07-21 07:20:00,
2013-07-21 09:22:00,78.9,64.8,29.97,NE,53,6.9,6.9,62,0.00,SCT,,0.00,438.0,WeatherDisplay:10.37,2013-07-21 07:22:00,
2013-07-21 09:23:00,79.1,65.0,29.96,NNE,17,5.0,5.0,62,0.00,FEW,,0.00,438.0,WeatherDisplay:10.37,2013-07-21 07:23:00,
2013-07-21 09:25:00,79.2,64.6,29.96,NNE,12,9.2,9.2,61,0.00,FEW,,0.00,522.0,WeatherDisplay:10.37,2013-07-21 07:25:00,
2013-07-21 09:27:00,79.2,64.1,29.97,NNE,25,8.1,8.1,60,0.00,FEW,,0.00,522.0,WeatherDisplay:10.37,2013-07-21 07:27:00,
2013-07-21 09:28:00,79.2,64.1,29.97,North,355,6.9,6.9,60,0.00,FEW,,0.00,522.0,WeatherDisplay:10.37,2013-07-21 07:28:00,
2013-07-21 09:30:00,79.3,64.2,29.97,NNE,17,6.0,6.0,60,0.00,FEW,,0.00,167.0,WeatherDisplay:10.37,2013-07-21 07:30:00,
2013-07-21 09:32:00,79.3,64.2,29.97,NE,53,8.1,8.1,60,0.00,FEW,,0.00,216.0,WeatherDisplay:10.37,2013-07-21 07:32:00,
2013-07-21 09:33:00,79.3,64.2,29.97,ENE,66,7.0,7.0,60,0.00,FEW,,0.00,216.0,WeatherDisplay:10.37,2013-07-21 07:33:00,
2013-07-21 09:37:00,79.4,64.3,29.97,NE,56,6.0,6.0,60,0.00,FEW,,0.00,487.0,WeatherDisplay:10.37,2013-07-21 07:37:00,
2013-07-21 09:38:00,79.4,64.3,29.97,ENE,64,8.1,8.1,60,0.00,FEW,,0.00,487.0,WeatherDisplay:10.37,2013-07-21 07:38:00,
2013-07-21 09:42:00,79.5,64.4,29.97,NE,56,6.9,6.9,60,0.00,FEW,,0.00,111.0,WeatherDisplay:10.37,2013-07-21 07:42:00,
2013-07-21 09:43:00,79.5,64.4,29.97,ENE,69,6.9,6.9,60,0.00,FEW,,0.00,113.0,WeatherDisplay:10.37,2013-07-21 07:43:00,
2013-07-21 09:44:00,79.6,64.5,29.97,NNE,15,3.5,3.5,60,0.00,FEW,,0.00,113.0,WeatherDisplay:10.37,2013-07-21 07:44:00,
2013-07-21 09:47:00,79.9,64.8,29.97,ENE,69,7.0,7.0,60,0.00,FEW,,0.00,114.0,WeatherDisplay:10.37,2013-07-21 07:47:00,
2013-07-21 09:48:00,79.9,64.3,29.97,ENE,77,8.1,8.1,59,0.00,FEW,,0.00,114.0,WeatherDisplay:10.37,2013-07-21 07:48:00,
2013-07-21 09:49:00,79.9,64.3,29.97,NE,49,8.1,8.1,59,0.00,SCT,,0.00,114.0,WeatherDisplay:10.37,2013-07-21 07:49:00,
2013-07-21 09:50:00,79.9,64.3,29.97,East,82,6.9,6.9,59,0.00,SCT,,0.00,116.0,WeatherDisplay:10.37,2013-07-21 07:50:00,
2013-07-21 09:52:00,80.1,65.0,29.97,ENE,65,3.5,3.5,60,0.00,SCT,,0.00,116.0,WeatherDisplay:10.37,2013-07-21 07:52:00,
2013-07-21 09:53:00,80.2,64.6,29.97,ENE,65,3.5,3.5,59,0.00,SCT,,0.00,118.0,WeatherDisplay:10.37,2013-07-21 07:53:00,
2013-07-21 09:54:00,80.4,64.8,29.97,ENE,65,1.2,0.0,59,0.00,SCT,,0.00,118.0,WeatherDisplay:10.37,2013-07-21 07:54:00,
2013-07-21 09:55:00,80.7,65.0,29.97,East,80,0.0,0.0,59,0.00,SCT,,0.00,118.0,WeatherDisplay:10.37,2013-07-21 07:55:00,
2013-07-21 09:58:00,81.4,64.7,29.97,ENE,69,4.6,4.6,57,0.00,SCT,,0.00,120.0,WeatherDisplay:10.37,2013-07-21 07:58:00,
2013-07-21 09:59:00,81.5,64.8,29.97,ENE,69,3.5,3.5,57,0.00,SCT,,0.00,120.0,WeatherDisplay:10.37,2013-07-21 07:59:00,
2013-07-21 10:00:00,81.7,64.5,29.97,ENE,75,1.2,0.0,56,0.00,SCT,,0.00,120.0,WeatherDisplay:10.37,2013-07-21 08:00:00,
2013-07-21 10:03:00,82.0,64.2,29.97,NE,55,4.0,4.0,55,0.00,SCT,,0.00,121.0,WeatherDisplay:10.37,2013-07-21 08:03:00,
2013-07-21 10:04:00,82.1,64.3,29.97,ENE,59,3.5,3.5,55,0.00,SCT,,0.00,121.0,WeatherDisplay:10.37,2013-07-21 08:04:00,
2013-07-21 10:05:00,82.2,64.4,29.97,ENE,60,2.3,2.3,55,0.00,SCT,,0.00,121.0,WeatherDisplay:10.37,2013-07-21 08:05:00,
2013-07-21 10:06:00,82.2,64.4,29.97,ENE,67,2.3,2.3,55,0.00,SCT,,0.00,121.0,WeatherDisplay:10.37,2013-07-21 08:06:00,
2013-07-21 10:08:00,82.4,64.6,29.97,WNW,297,0.0,0.0,55,0.00,SCT,,0.00,121.0,WeatherDisplay:10.37,2013-07-21 08:08:00,
2013-07-21 10:09:00,82.4,64.6,29.97,SW,225,0.0,0.0,55,0.00,SCT,,0.00,121.0,WeatherDisplay:10.37,2013-07-21 08:09:00,
2013-07-21 10:10:00,82.6,64.8,29.97,SW,229,0.0,0.0,55,0.00,SCT,,0.00,635.0,WeatherDisplay:10.37,2013-07-21 08:10:00,
2013-07-21 10:11:00,82.6,64.8,29.97,North,11,2.3,2.3,55,0.00,SCT,,0.00,638.0,WeatherDisplay:10.37,2013-07-21 08:11:00,
2013-07-21 10:13:00,82.7,64.9,29.97,East,94,5.0,5.0,55,0.00,FEW,,0.00,643.0,WeatherDisplay:10.37,2013-07-21 08:13:00,
2013-07-21 10:14:00,82.8,65.0,29.97,ENE,74,4.6,4.6,55,0.00,FEW,,0.00,645.0,WeatherDisplay:10.37,2013-07-21 08:14:00,
2013-07-21 10:15:00,82.8,65.0,29.97,North,11,3.5,3.5,55,0.00,FEW,,0.00,649.0,WeatherDisplay:10.37,2013-07-21 08:15:00,
2013-07-21 10:16:00,82.9,65.1,29.97,NNE,32,4.0,4.0,55,0.00,FEW,,0.00,649.0,WeatherDisplay:10.37,2013-07-21 08:16:00,
2013-07-21 10:19:00,83.0,65.7,29.97,NNE,15,6.9,6.9,56,0.00,FEW,,0.00,656.0,WeatherDisplay:10.37,2013-07-21 08:19:00,
2013-07-21 10:20:00,82.9,65.1,29.97,North,350,3.5,3.5,55,0.00,CLR,,0.00,659.0,WeatherDisplay:10.37,2013-07-21 08:20:00,
2013-07-21 10:21:00,82.9,65.1,29.97,NE,50,3.5,3.5,55,0.00,CLR,,0.00,657.0,WeatherDisplay:10.37,2013-07-21 08:21:00,
2013-07-21 10:24:00,83.0,65.2,29.96,NE,55,3.5,3.5,55,0.00,CLR,,0.00,664.0,WeatherDisplay:10.37,2013-07-21 08:24:00,
2013-07-21 10:25:00,83.0,65.2,29.96,ENE,57,3.5,0.0,55,0.00,CLR,,0.00,664.0,WeatherDisplay:10.37,2013-07-21 08:25:00,
2013-07-21 10:26:00,83.1,65.3,29.97,North,11,4.0,4.0,55,0.00,CLR,,0.00,664.0,WeatherDisplay:10.37,2013-07-21 08:26:00,
2013-07-21 10:27:00,83.1,65.3,29.96,North,360,3.5,3.5,55,0.00,CLR,,0.00,668.0,WeatherDisplay:10.37,2013-07-21 08:27:00,
2013-07-21 10:30:00,83.1,65.3,29.96,NE,36,0.0,0.0,55,0.00,CLR,,0.00,675.0,WeatherDisplay:10.37,2013-07-21 08:30:00,
2013-07-21 10:31:00,83.2,65.4,29.96,NNE,17,3.5,3.5,55,0.00,CLR,,0.00,675.0,WeatherDisplay:10.37,2013-07-21 08:31:00,
2013-07-21 10:32:00,83.3,65.4,29.96,NNE,15,3.5,3.5,55,0.00,CLR,,0.00,684.0,WeatherDisplay:10.37,2013-07-21 08:32:00,
2013-07-21 10:35:00,83.5,65.6,29.96,North,355,3.5,3.5,55,0.00,CLR,,0.00,691.0,WeatherDisplay:10.37,2013-07-21 08:35:00,
2013-07-21 10:36:00,83.6,65.7,29.96,North,360,6.0,6.0,55,0.00,CLR,,0.00,693.0,WeatherDisplay:10.37,2013-07-21 08:36:00,
2013-07-21 10:37:00,83.7,65.3,29.96,North,349,5.8,5.8,54,0.00,CLR,,0.00,693.0,WeatherDisplay:10.37,2013-07-21 08:37:00,
2013-07-21 10:38:00,83.8,65.4,29.96,NNW,338,5.8,5.8,54,0.00,CLR,,0.00,694.0,WeatherDisplay:10.37,2013-07-21 08:38:00,
2013-07-21 10:40:00,83.7,65.3,29.96,North,5,4.6,4.6,54,0.00,CLR,,0.00,694.0,WeatherDisplay:10.37,2013-07-21 08:40:00,
2013-07-21 10:41:00,83.7,65.3,29.96,NNE,22,3.5,0.0,54,0.00,CLR,,0.00,696.0,WeatherDisplay:10.37,2013-07-21 08:41:00,
2013-07-21 10:42:00,83.6,65.2,29.96,NNE,26,1.2,1.2,54,0.00,CLR,,0.00,696.0,WeatherDisplay:10.37,2013-07-21 08:42:00,
2013-07-21 10:43:00,83.6,65.2,29.96,North,5,1.0,1.0,54,0.00,CLR,,0.00,696.0,WeatherDisplay:10.37,2013-07-21 08:43:00,
2013-07-21 10:45:00,83.7,64.8,29.96,North,11,7.0,7.0,53,0.00,CLR,,0.00,705.0,WeatherDisplay:10.37,2013-07-21 08:45:00,
2013-07-21 10:46:00,83.7,64.2,29.96,NNE,18,8.1,8.1,52,0.00,CLR,,0.00,708.0,WeatherDisplay:10.37,2013-07-21 08:46:00,
2013-07-21 10:47:00,83.7,64.2,29.96,NE,48,5.8,5.8,52,0.00,CLR,,0.00,710.0,WeatherDisplay:10.37,2013-07-21 08:47:00,
2013-07-21 10:48:00,83.7,64.2,29.96,NNE,23,5.8,5.8,52,0.00,CLR,,0.00,715.0,WeatherDisplay:10.37,2013-07-21 08:48:00,
2013-07-21 10:50:00,83.8,64.3,29.96,NNE,19,5.8,5.8,52,0.00,CLR,,0.00,715.0,WeatherDisplay:10.37,2013-07-21 08:50:00,
2013-07-21 10:51:00,83.9,64.4,29.96,North,360,6.0,6.0,52,0.00,CLR,,0.00,715.0,WeatherDisplay:10.37,2013-07-21 08:51:00,
2013-07-21 10:52:00,83.9,64.4,29.96,NNE,14,5.8,5.8,52,0.00,CLR,,0.00,715.0,WeatherDisplay:10.37,2013-07-21 08:52:00,
2013-07-21 10:54:00,84.0,64.5,29.96,NNE,13,4.6,4.6,52,0.00,CLR,,0.00,722.0,WeatherDisplay:10.37,2013-07-21 08:54:00,
2013-07-21 10:55:00,84.1,65.1,29.96,NNW,330,3.5,3.5,53,0.00,CLR,,0.00,724.0,WeatherDisplay:10.37,2013-07-21 08:55:00,
2013-07-21 10:56:00,84.1,65.1,29.96,NNW,331,4.0,4.0,53,0.00,CLR,,0.00,724.0,WeatherDisplay:10.37,2013-07-21 08:56:00,
2013-07-21 10:57:00,84.1,64.6,29.96,NNW,342,3.5,3.5,52,0.00,CLR,,0.00,728.0,WeatherDisplay:10.37,2013-07-21 08:57:00,
2013-07-21 10:59:00,84.1,64.6,29.96,NE,51,3.0,3.0,52,0.00,CLR,,0.00,731.0,WeatherDisplay:10.37,2013-07-21 08:59:00,
2013-07-21 11:01:00,84.1,64.0,29.96,ENE,57,3.5,3.5,51,0.00,CLR,,0.00,731.0,WeatherDisplay:10.37,2013-07-21 09:01:00,
2013-07-21 11:02:00,84.2,64.1,29.96,NE,46,4.0,4.0,51,0.00,CLR,,0.00,738.0,WeatherDisplay:10.37,2013-07-21 09:02:00,
2013-07-21 11:04:00,84.4,63.7,29.96,East,80,6.9,6.9,50,0.00,CLR,,0.00,744.0,WeatherDisplay:10.37,2013-07-21 09:04:00,
2013-07-21 11:05:00,84.4,63.7,29.96,ENE,63,3.5,3.5,50,0.00,CLR,,0.00,744.0,WeatherDisplay:10.37,2013-07-21 09:05:00,
2013-07-21 11:06:00,84.6,63.9,29.96,ENE,63,3.5,0.0,50,0.00,CLR,,0.00,744.0,WeatherDisplay:10.37,2013-07-21 09:06:00,
2013-07-21 11:07:00,84.9,64.2,29.96,NE,46,4.0,4.0,50,0.00,CLR,,0.00,745.0,WeatherDisplay:10.37,2013-07-21 09:07:00,
2013-07-21 11:10:00,85.3,64.0,29.96,NNW,336,3.5,3.5,49,0.00,CLR,,0.00,747.0,WeatherDisplay:10.37,2013-07-21 09:10:00,
2013-07-21 11:11:00,85.4,64.1,29.96,NW,319,3.5,3.5,49,0.00,CLR,,0.00,747.0,WeatherDisplay:10.37,2013-07-21 09:11:00,
2013-07-21 11:12:00,85.5,64.2,29.96,North,355,3.5,3.5,49,0.00,CLR,,0.00,745.0,WeatherDisplay:10.37,2013-07-21 09:12:00,
2013-07-21 11:15:00,85.4,64.1,29.96,NNE,31,2.3,0.0,49,0.00,CLR,,0.00,758.0,WeatherDisplay:10.37,2013-07-21 09:15:00,
2013-07-21 11:16:00,85.4,64.1,29.96,North,9,1.2,1.2,49,0.00,CLR,,0.00,765.0,WeatherDisplay:10.37,2013-07-21 09:16:00,
2013-07-21 11:17:00,85.4,64.6,29.96,NNW,329,4.6,4.6,50,0.00,CLR,,0.00,765.0,WeatherDisplay:10.37,2013-07-21 09:17:00,
2013-07-21 11:18:00,85.5,64.7,29.96,NNW,335,4.6,4.6,50,0.00,CLR,,0.00,772.0,WeatherDisplay:10.37,2013-07-21 09:18:00,
2013-07-21 11:21:00,85.6,64.2,29.96,North,360,6.0,6.0,49,0.00,CLR,,0.00,773.0,WeatherDisplay:10.37,2013-07-21 09:21:00,
2013-07-21 11:22:00,85.8,64.4,29.96,NNE,14,5.8,5.8,49,0.00,CLR,,0.00,777.0,WeatherDisplay:10.37,2013-07-21 09:22:00,
2013-07-21 11:23:00,85.8,64.4,29.96,NW,326,4.6,4.6,49,0.00,CLR,,0.00,780.0,WeatherDisplay:10.37,2013-07-21 09:23:00,
2013-07-21 11:26:00,86.1,64.7,29.96,NNE,29,4.6,4.6,49,0.00,CLR,,0.00,786.0,WeatherDisplay:10.37,2013-07-21 09:26:00,
2013-07-21 11:27:00,86.1,64.7,29.96,NNE,19,3.5,3.5,49,0.00,CLR,,0.00,786.0,WeatherDisplay:10.37,2013-07-21 09:27:00,
2013-07-21 11:28:00,86.1,64.7,29.96,NNE,14,3.5,3.5,49,0.00,CLR,,0.00,793.0,WeatherDisplay:10.37,2013-07-21 09:28:00,
2013-07-21 11:29:00,86.1,64.1,29.96,North,360,5.0,5.0,48,0.00,CLR,,0.00,793.0,WeatherDisplay:10.37,2013-07-21 09:29:00,
2013-07-21 11:31:00,86.0,64.6,29.96,NE,45,5.8,5.8,49,0.00,CLR,,0.00,786.0,WeatherDisplay:10.37,2013-07-21 09:31:00,
2013-07-21 11:32:00,86.0,64.0,29.96,NNE,17,5.0,5.0,48,0.00,CLR,,0.00,782.0,WeatherDisplay:10.37,2013-07-21 09:32:00,
2013-07-21 11:33:00,86.0,64.6,29.96,North,9,5.8,5.8,49,0.00,CLR,,0.00,782.0,WeatherDisplay:10.37,2013-07-21 09:33:00,
2013-07-21 11:35:00,85.9,64.5,29.96,NW,323,1.2,0.0,49,0.00,CLR,,0.00,782.0,WeatherDisplay:10.37,2013-07-21 09:35:00,
2013-07-21 11:36:00,85.8,65.0,29.96,SE,134,0.0,0.0,50,0.00,CLR,,0.00,793.0,WeatherDisplay:10.37,2013-07-21 09:36:00,
2013-07-21 11:38:00,86.0,65.2,29.96,SE,129,0.0,0.0,50,0.00,CLR,,0.00,798.0,WeatherDisplay:10.37,2013-07-21 09:38:00,
2013-07-21 11:41:00,86.6,65.2,29.96,ENE,69,5.0,5.0,49,0.00,CLR,,0.00,809.0,WeatherDisplay:10.37,2013-07-21 09:41:00,
2013-07-21 11:43:00,87.0,64.9,29.96,East,92,4.6,4.6,48,0.00,CLR,,0.00,814.0,WeatherDisplay:10.37,2013-07-21 09:43:00,
2013-07-21 11:44:00,87.2,64.5,29.96,ESE,110,5.8,5.8,47,0.00,CLR,,0.00,814.0,WeatherDisplay:10.37,2013-07-21 09:44:00,
2013-07-21 11:46:00,87.6,63.6,29.96,SE,131,3.5,3.5,45,0.00,CLR,,0.00,817.0,WeatherDisplay:10.37,2013-07-21 09:46:00,
2013-07-21 11:48:00,87.9,63.9,29.96,SE,128,0.0,0.0,45,0.00,CLR,,0.00,819.0,WeatherDisplay:10.37,2013-07-21 09:48:00,
2013-07-21 11:49:00,88.0,64.0,29.96,SE,128,0.0,0.0,45,0.00,CLR,,0.00,819.0,WeatherDisplay:10.37,2013-07-21 09:49:00,
2013-07-21 11:51:00,88.7,65.3,29.96,ESE,107,5.8,5.8,46,0.00,CLR,,0.00,830.0,WeatherDisplay:10.37,2013-07-21 09:51:00,
2013-07-21 11:52:00,88.8,65.4,29.96,SE,130,5.8,5.8,46,0.00,CLR,,0.00,830.0,WeatherDisplay:10.37,2013-07-21 09:52:00,
2013-07-21 11:54:00,89.0,63.6,29.96,East,101,1.2,0.0,43,0.00,CLR,,0.00,831.0,WeatherDisplay:10.37,2013-07-21 09:54:00,
2013-07-21 11:55:00,88.8,63.4,29.96,ESE,103,0.0,0.0,43,0.00,CLR,,0.00,837.0,WeatherDisplay:10.37,2013-07-21 09:55:00,
2013-07-21 11:57:00,89.0,64.3,29.96,ESE,114,1.2,0.0,44,0.00,CLR,,0.00,837.0,WeatherDisplay:10.37,2013-07-21 09:57:00,
2013-07-21 11:59:00,89.2,63.8,29.96,ESE,107,2.0,2.0,43,0.00,CLR,,0.00,837.0,WeatherDisplay:10.37,2013-07-21 09:59:00,
2013-07-21 12:00:00,89.3,63.9,29.96,West,271,3.5,3.5,43,0.00,CLR,,0.00,837.0,WeatherDisplay:10.37,2013-07-21 10:00:00,
2013-07-21 12:01:00,89.3,65.2,29.96,ESE,105,2.3,2.3,45,0.00,CLR,,0.00,837.0,WeatherDisplay:10.37,2013-07-21 10:01:00,
2013-07-21 12:02:00,89.3,65.2,29.96,ESE,109,2.0,2.0,45,0.00,CLR,,0.00,840.0,WeatherDisplay:10.37,2013-07-21 10:02:00,
2013-07-21 12:04:00,89.2,65.1,29.96,SE,134,3.5,3.5,45,0.00,CLR,,0.00,842.0,WeatherDisplay:10.37,2013-07-21 10:04:00,
2013-07-21 12:05:00,89.1,65.0,29.96,SE,132,1.2,1.2,45,0.00,CLR,,0.00,837.0,WeatherDisplay:10.37,2013-07-21 10:05:00,
2013-07-21 12:06:00,89.1,65.0,29.96,SE,132,1.2,1.2,45,0.00,CLR,,0.00,837.0,WeatherDisplay:10.37,2013-07-21 10:06:00,
2013-07-21 12:07:00,89.0,64.9,29.96,SE,132,0.0,0.0,45,0.00,CLR,,0.00,837.0,WeatherDisplay:10.37,2013-07-21 10:07:00,
2013-07-21 12:08:00,88.9,64.8,29.96,SE,132,0.0,0.0,45,0.00,CLR,,0.00,837.0,WeatherDisplay:10.37,2013-07-21 10:08:00,
2013-07-21 12:10:00,88.8,64.7,29.96,NW,308,4.0,4.0,45,0.00,CLR,,0.00,844.0,WeatherDisplay:10.37,2013-07-21 10:10:00,
2013-07-21 12:11:00,88.6,65.2,29.96,North,5,5.0,5.0,46,0.00,CLR,,0.00,858.0,WeatherDisplay:10.37,2013-07-21 10:11:00,
2013-07-21 12:12:00,88.3,64.9,29.96,NW,318,5.8,5.8,46,0.00,CLR,,0.00,870.0,WeatherDisplay:10.37,2013-07-21 10:12:00,
2013-07-21 12:13:00,88.3,64.9,29.96,WNW,294,4.6,4.6,46,0.00,CLR,,0.00,872.0,WeatherDisplay:10.37,2013-07-21 10:13:00,
2013-07-21 12:15:00,87.9,64.5,29.96,NW,314,10.4,10.4,46,0.00,CLR,,0.00,874.0,WeatherDisplay:10.37,2013-07-21 10:15:00,
2013-07-21 12:16:00,87.8,64.4,29.96,NW,313,10.4,10.4,46,0.00,CLR,,0.00,874.0,WeatherDisplay:10.37,2013-07-21 10:16:00,
2013-07-21 12:17:00,87.6,64.9,29.96,NNW,347,10.4,10.4,47,0.00,CLR,,0.00,874.0,WeatherDisplay:10.37,2013-07-21 10:17:00,
2013-07-21 12:18:00,87.6,64.9,29.96,NW,315,10.4,10.4,47,0.00,CLR,,0.00,888.0,WeatherDisplay:10.37,2013-07-21 10:18:00,
2013-07-21 12:20:00,87.4,64.7,29.96,NNW,328,6.9,6.9,47,0.00,CLR,,0.00,900.0,WeatherDisplay:10.37,2013-07-21 10:20:00,
2013-07-21 12:21:00,87.4,64.7,29.96,NNW,328,6.9,6.9,47,0.00,CLR,,0.00,900.0,WeatherDisplay:10.37,2013-07-21 10:21:00,
2013-07-21 12:22:00,87.4,64.7,29.96,NNW,333,4.6,4.6,47,0.00,CLR,,0.00,919.0,WeatherDisplay:10.37,2013-07-21 10:22:00,
2013-07-21 12:23:00,87.4,65.3,29.96,NNW,334,4.6,4.6,48,0.00,CLR,,0.00,919.0,WeatherDisplay:10.37,2013-07-21 10:23:00,
2013-07-21 12:26:00,87.8,64.4,29.96,NW,310,3.5,0.0,46,0.00,CLR,,0.00,812.0,WeatherDisplay:10.37,2013-07-21 10:26:00,
2013-07-21 12:28:00,87.9,65.2,29.96,North,5,3.5,3.5,47,0.00,CLR,,0.00,854.0,WeatherDisplay:10.37,2013-07-21 10:28:00,
2013-07-21 12:31:00,87.9,64.5,29.96,NNE,28,7.0,7.0,46,0.00,CLR,,0.00,990.0,WeatherDisplay:10.37,2013-07-21 10:31:00,
2013-07-21 12:33:00,88.3,63.0,29.96,ENE,78,11.5,11.5,43,0.00,CLR,,0.00,846.0,WeatherDisplay:10.37,2013-07-21 10:33:00,
2013-07-21 12:36:00,88.7,63.3,29.96,WSW,250,3.5,0.0,43,0.00,CLR,,0.00,446.0,WeatherDisplay:10.37,2013-07-21 10:36:00,
2013-07-21 12:38:00,88.9,63.5,29.96,NE,47,3.5,3.5,43,0.00,FEW,,0.00,446.0,WeatherDisplay:10.37,2013-07-21 10:38:00,
2013-07-21 12:39:00,89.0,63.6,29.96,ENE,73,5.0,5.0,43,0.00,FEW,,0.00,446.0,WeatherDisplay:10.37,2013-07-21 10:39:00,
2013-07-21 12:41:00,88.9,62.8,29.96,ENE,78,6.9,6.9,42,0.00,FEW,,0.00,438.0,WeatherDisplay:10.37,2013-07-21 10:41:00,
2013-07-21 12:43:00,88.9,62.8,29.96,NNW,342,3.0,3.0,42,0.00,FEW,,0.00,485.0,WeatherDisplay:10.37,2013-07-21 10:43:00,
2013-07-21 12:44:00,88.9,63.5,29.96,North,355,3.5,3.5,43,0.00,FEW,,0.00,485.0,WeatherDisplay:10.37,2013-07-21 10:44:00,
2013-07-21 12:45:00,88.8,63.4,29.96,North,355,3.5,0.0,43,0.00,FEW,,0.00,485.0,WeatherDisplay:10.37,2013-07-21 10:45:00,
2013-07-21 12:47:00,88.6,63.2,29.95,WNW,286,4.0,4.0,43,0.00,FEW,,0.00,889.0,WeatherDisplay:10.37,2013-07-21 10:47:00,
2013-07-21 12:49:00,88.3,63.6,29.95,WSW,245,3.5,3.5,44,0.00,FEW,,0.00,889.0,WeatherDisplay:10.37,2013-07-21 10:49:00,
2013-07-21 12:50:00,88.3,63.6,29.96,West,271,7.0,7.0,44,0.00,FEW,,0.00,889.0,WeatherDisplay:10.37,2013-07-21 10:50:00,
2013-07-21 12:52:00,88.3,63.6,29.95,ENE,74,8.1,8.1,44,0.00,FEW,,0.00,889.0,WeatherDisplay:10.37,2013-07-21 10:52:00,
2013-07-21 12:54:00,88.4,63.7,29.95,NNW,342,9.0,9.0,44,0.00,FEW,,0.00,889.0,WeatherDisplay:10.37,2013-07-21 10:54:00,
2013-07-21 12:55:00,88.4,63.7,29.95,North,9,9.2,9.2,44,0.00,FEW,,0.00,889.0,WeatherDisplay:10.37,2013-07-21 10:55:00,
2013-07-21 12:56:00,88.3,63.6,29.95,NNE,18,10.4,10.4,44,0.00,CLR,,0.00,889.0,WeatherDisplay:10.37,2013-07-21 10:56:00,
2013-07-21 12:57:00,88.2,63.5,29.95,NW,314,10.4,10.4,44,0.00,CLR,,0.00,997.0,WeatherDisplay:10.37,2013-07-21 10:57:00,
2013-07-21 12:59:00,88.2,63.5,29.95,North,9,9.2,9.2,44,0.00,CLR,,0.00,925.0,WeatherDisplay:10.37,2013-07-21 10:59:00,
2013-07-21 13:00:00,88.2,63.5,29.95,North,5,9.2,9.2,44,0.00,CLR,,0.00,925.0,WeatherDisplay:10.37,2013-07-21 11:00:00,
2013-07-21 13:01:00,88.1,63.4,29.95,North,360,9.2,9.2,44,0.00,CLR,,0.00,851.0,WeatherDisplay:10.37,2013-07-21 11:01:00,
2013-07-21 13:03:00,88.2,63.5,29.95,North,360,9.0,9.0,44,0.00,CLR,,0.00,851.0,WeatherDisplay:10.37,2013-07-21 11:03:00,
2013-07-21 13:04:00,88.2,64.2,29.95,NE,35,10.0,10.0,45,0.00,CLR,,0.00,1000.0,WeatherDisplay:10.37,2013-07-21 11:04:00,
2013-07-21 13:05:00,88.2,63.5,29.95,NNW,348,8.1,8.1,44,0.00,CLR,,0.00,1004.0,WeatherDisplay:10.37,2013-07-21 11:05:00,
2013-07-21 13:06:00,88.5,63.1,29.95,North,9,10.4,10.4,43,0.00,CLR,,0.00,1004.0,WeatherDisplay:10.37,2013-07-21 11:06:00,
2013-07-21 13:08:00,88.8,64.1,29.95,NNW,334,11.5,11.5,44,0.00,CLR,,0.00,963.0,WeatherDisplay:10.37,2013-07-21 11:08:00,
2013-07-21 13:09:00,88.8,63.4,29.95,NW,317,11.5,11.5,43,0.00,CLR,,0.00,874.0,WeatherDisplay:10.37,2013-07-21 11:09:00,
2013-07-21 13:10:00,88.7,63.3,29.95,NNW,331,10.4,10.4,43,0.00,CLR,,0.00,874.0,WeatherDisplay:10.37,2013-07-21 11:10:00,
2013-07-21 13:11:00,88.6,63.2,29.95,NW,314,10.4,10.4,43,0.00,CLR,,0.00,874.0,WeatherDisplay:10.37,2013-07-21 11:11:00,
2013-07-21 13:13:00,88.5,61.8,29.95,NW,309,10.4,10.4,41,0.00,CLR,,0.00,1023.0,WeatherDisplay:10.37,2013-07-21 11:13:00,
2013-07-21 13:15:00,88.3,62.3,29.95,NNW,340,7.0,7.0,42,0.00,CLR,,0.00,1023.0,WeatherDisplay:10.37,2013-07-21 11:15:00,
2013-07-21 13:16:00,88.3,62.3,29.95,NW,325,6.9,6.9,42,0.00,CLR,,0.00,1021.0,WeatherDisplay:10.37,2013-07-21 11:16:00,
2013-07-21 13:18:00,88.4,63.1,29.95,NNW,327,9.2,9.2,43,0.00,CLR,,0.00,1030.0,WeatherDisplay:10.37,2013-07-21 11:18:00,
2013-07-21 13:20:00,88.5,63.1,29.95,NW,325,8.1,8.1,43,0.00,CLR,,0.00,1032.0,WeatherDisplay:10.37,2013-07-21 11:20:00,
2013-07-21 13:21:00,88.5,63.1,29.95,NNW,335,10.0,10.0,43,0.00,CLR,,0.00,1025.0,WeatherDisplay:10.37,2013-07-21 11:21:00,
2013-07-21 13:22:00,88.5,62.5,29.95,NW,315,10.4,10.4,42,0.00,CLR,,0.00,1025.0,WeatherDisplay:10.37,2013-07-21 11:22:00,
2013-07-21 13:23:00,88.5,62.5,29.95,WNW,301,10.4,10.4,42,0.00,CLR,,0.00,981.0,WeatherDisplay:10.37,2013-07-21 11:23:00,
2013-07-21 13:26:00,88.4,61.7,29.95,NNW,339,10.4,10.4,41,0.00,CLR,,0.00,981.0,WeatherDisplay:10.37,2013-07-21 11:26:00,
2013-07-21 13:27:00,88.4,62.4,29.95,North,360,9.0,9.0,42,0.00,CLR,,0.00,981.0,WeatherDisplay:10.37,2013-07-21 11:27:00,
2013-07-21 13:28:00,88.3,62.3,29.95,NNW,338,9.2,9.2,42,0.00,CLR,,0.00,981.0,WeatherDisplay:10.37,2013-07-21 11:28:00,
2013-07-21 13:31:00,88.2,62.2,29.95,NW,309,6.9,6.9,42,0.00,FEW,,0.00,295.0,WeatherDisplay:10.37,2013-07-21 11:31:00,
2013-07-21 13:33:00,88.1,62.1,29.95,North,355,5.8,5.8,42,0.00,FEW,,0.00,295.0,WeatherDisplay:10.37,2013-07-21 11:33:00,
2013-07-21 13:34:00,88.0,62.0,29.95,NW,315,5.8,5.8,42,0.00,FEW,,0.00,295.0,WeatherDisplay:10.37,2013-07-21 11:34:00,
2013-07-21 13:36:00,87.8,61.2,29.95,NNW,344,6.9,6.9,41,0.00,FEW,,0.00,348.0,WeatherDisplay:10.37,2013-07-21 11:36:00,
2013-07-21 13:38:00,87.7,61.8,29.94,NNW,331,6.0,6.0,42,0.00,FEW,,0.00,348.0,WeatherDisplay:10.37,2013-07-21 11:38:00,
2013-07-21 13:39:00,87.7,61.8,29.95,WNW,301,5.8,5.8,42,0.00,FEW,,0.00,963.0,WeatherDisplay:10.37,2013-07-21 11:39:00,
2013-07-21 13:42:00,87.7,62.4,29.94,WNW,293,6.9,6.9,43,0.00,FEW,,0.00,969.0,WeatherDisplay:10.37,2013-07-21 11:42:00,
2013-07-21 13:43:00,87.8,61.9,29.95,West,278,8.1,8.1,42,0.00,FEW,,0.00,1002.0,WeatherDisplay:10.37,2013-07-21 11:43:00,
2013-07-21 13:44:00,88.1,62.1,29.95,NW,321,6.9,6.9,42,0.00,FEW,,0.00,1002.0,WeatherDisplay:10.37,2013-07-21 11:44:00,
2013-07-21 13:47:00,88.2,62.2,29.95,NW,317,6.9,6.9,42,0.00,FEW,,0.00,951.0,WeatherDisplay:10.37,2013-07-21 11:47:00,
2013-07-21 13:48:00,88.2,61.5,29.95,WNW,287,4.6,4.6,41,0.00,FEW,,0.00,951.0,WeatherDisplay:10.37,2013-07-21 11:48:00,
2013-07-21 13:50:00,88.3,61.6,29.95,WNW,298,5.8,5.8,41,0.00,CLR,,0.00,951.0,WeatherDisplay:10.37,2013-07-21 11:50:00,
2013-07-21 13:52:00,88.3,61.6,29.94,WNW,292,11.5,11.5,41,0.00,CLR,,0.00,744.0,WeatherDisplay:10.37,2013-07-21 11:52:00,
2013-07-21 13:53:00,88.3,60.9,29.94,NW,323,11.5,11.5,40,0.00,CLR,,0.00,747.0,WeatherDisplay:10.37,2013-07-21 11:53:00,
2013-07-21 13:55:00,88.4,61.0,29.94,WNW,285,9.2,9.2,40,0.00,CLR,,0.00,747.0,WeatherDisplay:10.37,2013-07-21 11:55:00,
2013-07-21 13:56:00,88.4,61.0,29.94,West,281,9.2,9.2,40,0.00,FEW,,0.00,747.0,WeatherDisplay:10.37,2013-07-21 11:56:00,
2013-07-21 13:57:00,88.5,61.1,29.94,NW,325,6.9,6.9,40,0.00,FEW,,0.00,441.0,WeatherDisplay:10.37,2013-07-21 11:57:00,
2013-07-21 13:58:00,88.5,61.1,29.94,NW,304,6.9,6.9,40,0.00,FEW,,0.00,441.0,WeatherDisplay:10.37,2013-07-21 11:58:00,
2013-07-21 14:00:00,88.5,61.1,29.93,NW,317,10.4,10.4,40,0.00,FEW,,0.00,360.0,WeatherDisplay:10.37,2013-07-21 12:00:00,
2013-07-21 14:01:00,88.4,59.6,29.93,NW,305,9.2,9.2,38,0.00,FEW,,0.00,360.0,WeatherDisplay:10.37,2013-07-21 12:01:00,
2013-07-21 14:02:00,88.3,60.2,29.93,NW,322,11.5,11.5,39,0.00,FEW,,0.00,364.0,WeatherDisplay:10.37,2013-07-21 12:02:00,
2013-07-21 14:03:00,88.3,60.9,29.93,NW,325,11.5,11.5,40,0.00,FEW,,0.00,364.0,WeatherDisplay:10.37,2013-07-21 12:03:00,
2013-07-21 14:06:00,88.1,61.4,29.94,North,355,10.4,10.4,41,0.00,FEW,,0.00,397.0,WeatherDisplay:10.37,2013-07-21 12:06:00,
2013-07-21 14:07:00,88.0,61.3,29.94,NNW,342,10.4,10.4,41,0.00,FEW,,0.00,712.0,WeatherDisplay:10.37,2013-07-21 12:07:00,
2013-07-21 14:08:00,88.0,61.3,29.94,North,350,10.4,10.4,41,0.00,FEW,,0.00,712.0,WeatherDisplay:10.37,2013-07-21 12:08:00,
2013-07-21 14:11:00,88.0,61.3,29.94,NNW,332,8.1,8.1,41,0.00,FEW,,0.00,696.0,WeatherDisplay:10.37,2013-07-21 12:11:00,
2013-07-21 14:12:00,88.0,61.3,29.94,NW,325,8.1,8.1,41,0.00,FEW,,0.00,793.0,WeatherDisplay:10.37,2013-07-21 12:12:00,
2013-07-21 14:13:00,88.1,61.4,29.94,NW,323,6.9,6.9,41,0.00,FEW,,0.00,793.0,WeatherDisplay:10.37,2013-07-21 12:13:00,
2013-07-21 14:14:00,88.1,61.4,29.94,NW,315,6.9,6.9,41,0.00,FEW,,0.00,793.0,WeatherDisplay:10.37,2013-07-21 12:14:00,
2013-07-21 14:16:00,88.2,61.5,29.94,NNW,337,6.9,6.9,41,0.00,FEW,,0.00,793.0,WeatherDisplay:10.37,2013-07-21 12:16:00,
2013-07-21 14:17:00,88.2,61.5,29.94,NW,313,6.9,6.9,41,0.00,FEW,,0.00,793.0,WeatherDisplay:10.37,2013-07-21 12:17:00,
2013-07-21 14:18:00,88.2,60.8,29.94,NNW,348,6.9,6.9,40,0.00,FEW,,0.00,325.0,WeatherDisplay:10.37,2013-07-21 12:18:00,
2013-07-21 14:19:00,88.2,60.8,29.94,NNW,340,5.8,5.8,40,0.00,FEW,,0.00,325.0,WeatherDisplay:10.37,2013-07-21 12:19:00,
2013-07-21 14:22:00,88.2,60.8,29.95,NNW,327,5.8,5.8,40,0.00,FEW,,0.00,274.0,WeatherDisplay:10.37,2013-07-21 12:22:00,
2013-07-21 14:23:00,88.1,60.7,29.95,NW,325,3.5,3.5,40,0.00,FEW,,0.00,278.0,WeatherDisplay:10.37,2013-07-21 12:23:00,
2013-07-21 14:24:00,88.1,60.7,29.95,NW,325,2.3,0.0,40,0.00,FEW,,0.00,352.0,WeatherDisplay:10.37,2013-07-21 12:24:00,
2013-07-21 14:27:00,88.5,62.5,29.95,SE,143,18.4,18.4,42,0.00,FEW,,0.00,352.0,WeatherDisplay:10.37,2013-07-21 12:27:00,
2013-07-21 14:28:00,88.1,61.4,29.95,SE,140,15.0,15.0,41,0.00,SCT,,0.00,352.0,WeatherDisplay:10.37,2013-07-21 12:28:00,
2013-07-21 14:29:00,88.1,61.4,29.95,SE,140,15.0,15.0,41,0.00,SCT,,0.00,352.0,WeatherDisplay:10.37,2013-07-21 12:29:00,
2013-07-21 14:30:00,87.5,60.9,29.95,SE,139,13.8,13.8,41,0.00,SCT,,0.00,352.0,WeatherDisplay:10.37,2013-07-21 12:30:00,
2013-07-21 14:33:00,86.2,59.7,29.96,SE,135,12.7,12.7,41,0.00,SCT,,0.00,232.0,WeatherDisplay:10.37,2013-07-21 12:33:00,
2013-07-21 14:34:00,86.0,59.6,29.96,SE,134,11.5,11.5,41,0.00,SCT,,0.00,232.0,WeatherDisplay:10.37,2013-07-21 12:34:00,
2013-07-21 14:35:00,85.3,58.9,29.96,SE,132,11.5,11.5,41,0.00,SCT,,0.00,232.0,WeatherDisplay:10.37,2013-07-21 12:35:00,
2013-07-21 14:38:00,84.3,59.4,29.96,SE,128,16.1,16.1,43,0.00,SCT,,0.00,181.0,WeatherDisplay:10.37,2013-07-21 12:38:00,
2013-07-21 14:39:00,84.0,59.7,29.96,SE,144,18.4,18.4,44,0.00,SCT,,0.00,181.0,WeatherDisplay:10.37,2013-07-21 12:39:00,
2013-07-21 14:40:00,83.9,59.7,29.96,SE,133,11.5,11.5,44,0.00,SCT,,0.00,169.0,WeatherDisplay:10.37,2013-07-21 12:40:00,
2013-07-21 14:44:00,82.2,58.7,29.96,SE,133,12.7,12.7,45,0.00,SCT,,0.00,169.0,WeatherDisplay:10.37,2013-07-21 12:44:00,
2013-07-21 14:46:00,81.8,58.4,29.96,SSE,150,11.5,11.5,45,0.00,SCT,,0.00,160.0,WeatherDisplay:10.37,2013-07-21 12:46:00,
2013-07-21 14:47:00,81.6,58.2,29.96,ESE,120,11.0,11.0,45,0.00,SCT,,0.00,160.0,WeatherDisplay:10.37,2013-07-21 12:47:00,
2013-07-21 14:49:00,81.5,58.7,29.96,SE,131,10.4,10.4,46,0.00,SCT,,0.00,156.0,WeatherDisplay:10.37,2013-07-21 12:49:00,
2013-07-21 14:50:00,81.5,58.7,29.96,SE,126,9.2,9.2,46,0.00,SCT,,0.00,151.0,WeatherDisplay:10.37,2013-07-21 12:50:00,
2013-07-21 14:51:00,81.6,58.8,29.96,SE,126,10.4,10.4,46,0.00,SCT,,0.00,146.0,WeatherDisplay:10.37,2013-07-21 12:51:00,
2013-07-21 14:52:00,81.6,58.8,29.96,East,88,11.5,11.5,46,0.00,SCT,,0.00,146.0,WeatherDisplay:10.37,2013-07-21 12:52:00,
2013-07-21 14:54:00,81.7,60.7,29.96,ESE,109,16.1,16.1,49,0.00,BKN,,0.00,146.0,WeatherDisplay:10.37,2013-07-21 12:54:00,
2013-07-21 14:55:00,81.6,61.2,29.96,SE,127,16.1,16.1,50,0.00,BKN,,0.00,169.0,WeatherDisplay:10.37,2013-07-21 12:55:00,
2013-07-21 14:56:00,81.5,61.6,29.96,ESE,117,12.7,12.7,51,0.00,BKN,,0.00,169.0,WeatherDisplay:10.37,2013-07-21 12:56:00,
2013-07-21 14:58:00,81.3,62.5,29.96,ESE,114,16.0,16.0,53,0.00,BKN,,0.00,186.0,WeatherDisplay:10.37,2013-07-21 12:58:00,
2013-07-21 14:59:00,81.1,62.3,29.96,SE,132,23.0,23.0,53,0.00,SCT,,0.00,183.0,WeatherDisplay:10.37,2013-07-21 12:59:00,
2013-07-21 15:00:00,80.9,62.7,29.96,SE,140,11.5,11.5,54,0.00,SCT,,0.00,183.0,WeatherDisplay:10.37,2013-07-21 13:00:00,
2013-07-21 15:02:00,80.7,60.3,29.96,SSE,156,18.4,18.4,50,0.00,SCT,,0.00,179.0,WeatherDisplay:10.37,2013-07-21 13:02:00,
2013-07-21 15:03:00,80.4,62.8,29.96,South,180,12.7,12.7,55,0.00,SCT,,0.00,179.0,WeatherDisplay:10.37,2013-07-21 13:03:00,
2013-07-21 15:04:00,79.9,62.3,29.95,SE,146,11.5,11.5,55,0.00,SCT,,0.00,162.0,WeatherDisplay:10.37,2013-07-21 13:04:00,
2013-07-21 15:05:00,79.5,61.9,29.95,SSE,165,11.5,11.5,55,0.00,SCT,,0.00,130.0,WeatherDisplay:10.37,2013-07-21 13:05:00,
2013-07-21 15:07:00,79.1,61.5,29.95,SSE,152,10.0,10.0,55,0.00,SCT,,0.00,128.0,WeatherDisplay:10.37,2013-07-21 13:07:00,
2013-07-21 15:08:00,78.7,61.2,29.95,SE,124,12.7,12.7,55,0.00,SCT,,0.00,127.0,WeatherDisplay:10.37,2013-07-21 13:08:00,
2013-07-21 15:09:00,78.6,61.6,29.95,SSE,147,11.5,11.5,56,0.00,SCT,,0.00,127.0,WeatherDisplay:10.37,2013-07-21 13:09:00,
2013-07-21 15:11:00,78.3,60.8,29.95,SSE,159,8.1,8.1,55,0.00,BKN,,0.00,127.0,WeatherDisplay:10.37,2013-07-21 13:11:00,
2013-07-21 15:12:00,78.0,60.5,29.95,South,174,5.8,5.8,55,0.00,BKN,,0.00,127.0,WeatherDisplay:10.37,2013-07-21 13:12:00,
2013-07-21 15:13:00,77.9,60.4,29.95,SE,144,6.9,6.9,55,0.00,BKN,,0.00,125.0,WeatherDisplay:10.37,2013-07-21 13:13:00,
2013-07-21 15:14:00,77.8,60.8,29.95,South,169,3.5,3.5,56,0.00,BKN,,0.00,125.0,WeatherDisplay:10.37,2013-07-21 13:14:00,
2013-07-21 15:15:00,77.7,60.8,29.95,SE,146,8.1,8.1,56,0.00,BKN,,0.00,123.0,WeatherDisplay:10.37,2013-07-21 13:15:00,
2013-07-21 15:16:00,77.6,60.7,29.95,SE,141,8.1,8.1,56,0.00,BKN,,0.00,123.0,WeatherDisplay:10.37,2013-07-21 13:16:00,
2013-07-21 15:17:00,77.4,60.0,29.95,SE,134,8.1,8.1,55,0.00,BKN,,0.00,123.0,WeatherDisplay:10.37,2013-07-21 13:17:00,
2013-07-21 15:19:00,77.3,59.9,29.95,SE,141,6.0,6.0,55,0.00,BKN,,0.00,120.0,WeatherDisplay:10.37,2013-07-21 13:19:00,
2013-07-21 15:20:00,77.2,59.3,29.95,East,92,3.5,3.5,54,0.00,BKN,,0.00,116.0,WeatherDisplay:10.37,2013-07-21 13:20:00,
2013-07-21 15:21:00,77.2,59.3,29.95,East,86,3.5,3.5,54,0.00,BKN,,0.00,116.0,WeatherDisplay:10.37,2013-07-21 13:21:00,
2013-07-21 15:22:00,77.2,59.3,29.95,SE,132,3.5,3.5,54,0.00,BKN,,0.00,116.0,WeatherDisplay:10.37,2013-07-21 13:22:00,
2013-07-21 15:24:00,77.2,59.8,29.95,WNW,303,1.2,0.0,55,0.00,BKN,,0.00,111.0,WeatherDisplay:10.37,2013-07-21 13:24:00,
2013-07-21 15:26:00,77.5,60.1,29.95,SW,231,3.5,3.5,55,0.00,BKN,,0.00,111.0,WeatherDisplay:10.37,2013-07-21 13:26:00,
2013-07-21 15:28:00,77.6,58.6,29.95,SE,133,3.5,3.5,52,0.00,BKN,,0.00,109.0,WeatherDisplay:10.37,2013-07-21 13:28:00,
2013-07-21 15:29:00,77.6,58.6,29.95,SE,126,2.3,2.3,52,0.00,BKN,,0.00,109.0,WeatherDisplay:10.37,2013-07-21 13:29:00,
2013-07-21 15:31:00,77.8,58.2,29.95,ESE,114,4.6,4.6,51,0.00,BKN,,0.00,109.0,WeatherDisplay:10.37,2013-07-21 13:31:00,
2013-07-21 15:32:00,77.8,58.2,29.95,SSE,160,1.2,1.2,51,0.00,BKN,,0.00,109.0,WeatherDisplay:10.37,2013-07-21 13:32:00,
2013-07-21 15:33:00,77.9,58.3,29.95,SSE,160,1.2,1.2,51,0.00,BKN,,0.00,107.0,WeatherDisplay:10.37,2013-07-21 13:33:00,
2013-07-21 15:34:00,78.0,58.4,29.95,SSE,154,0.0,0.0,51,0.00,BKN,,0.00,107.0,WeatherDisplay:10.37,2013-07-21 13:34:00,
2013-07-21 15:36:00,78.3,58.1,29.95,SSE,154,0.0,0.0,50,0.00,BKN,,0.00,107.0,WeatherDisplay:10.37,2013-07-21 13:36:00,
2013-07-21 15:38:00,78.6,58.4,29.95,SSE,153,0.0,0.0,50,0.00,BKN,,0.00,111.0,WeatherDisplay:10.37,2013-07-21 13:38:00,
2013-07-21 15:40:00,78.6,57.8,29.95,NE,51,3.5,3.5,49,0.00,BKN,,0.00,111.0,WeatherDisplay:10.37,2013-07-21 13:40:00,
2013-07-21 15:42:00,78.9,58.7,29.96,North,360,3.5,3.5,50,0.00,BKN,,0.00,111.0,WeatherDisplay:10.37,2013-07-21 13:42:00,
2013-07-21 15:43:00,79.0,58.8,29.96,North,5,3.5,3.5,50,0.00,BKN,,0.00,111.0,WeatherDisplay:10.37,2013-07-21 13:43:00,
2013-07-21 15:44:00,79.1,58.9,29.95,North,360,4.0,4.0,50,0.00,BKN,,0.00,111.0,WeatherDisplay:10.37,2013-07-21 13:44:00,
2013-07-21 15:45:00,79.2,59.0,29.95,North,5,3.5,3.5,50,0.00,BKN,,0.00,111.0,WeatherDisplay:10.37,2013-07-21 13:45:00,
2013-07-21 15:47:00,79.5,60.9,29.96,NNW,338,3.5,3.5,53,0.00,BKN,,0.00,107.0,WeatherDisplay:10.37,2013-07-21 13:47:00,
2013-07-21 15:48:00,79.6,61.0,29.96,NNW,332,3.5,3.5,53,0.00,BKN,,0.00,111.0,WeatherDisplay:10.37,2013-07-21 13:48:00,
2013-07-21 15:49:00,79.6,61.5,29.96,NW,311,3.5,3.5,54,0.00,BKN,,0.00,114.0,WeatherDisplay:10.37,2013-07-21 13:49:00,
2013-07-21 15:50:00,79.6,61.0,29.96,WNW,300,3.5,3.5,53,0.00,BKN,,0.00,118.0,WeatherDisplay:10.37,2013-07-21 13:50:00,
2013-07-21 15:51:00,79.6,60.4,29.96,WNW,289,3.5,3.5,52,0.00,BKN,,0.00,120.0,WeatherDisplay:10.37,2013-07-21 13:51:00,
2013-07-21 15:52:00,79.6,59.3,29.95,West,280,3.5,3.5,50,0.00,BKN,,0.00,120.0,WeatherDisplay:10.37,2013-07-21 13:52:00,
2013-07-21 15:54:00,79.6,58.8,29.95,WNW,284,3.5,3.5,49,0.00,BKN,,0.00,120.0,WeatherDisplay:10.37,2013-07-21 13:54:00,
2013-07-21 15:55:00,79.5,58.1,29.95,WNW,284,3.5,3.5,48,0.00,BKN,,0.00,120.0,WeatherDisplay:10.37,2013-07-21 13:55:00,
2013-07-21 15:57:00,79.6,58.2,29.95,WNW,285,3.5,3.5,48,0.00,BKN,,0.00,132.0,WeatherDisplay:10.37,2013-07-21 13:57:00,
2013-07-21 15:58:00,79.6,57.6,29.95,WNW,300,4.0,4.0,47,0.00,BKN,,0.00,137.0,WeatherDisplay:10.37,2013-07-21 13:58:00,
2013-07-21 15:59:00,79.6,57.6,29.95,WNW,297,3.5,3.5,47,0.00,BKN,,0.00,144.0,WeatherDisplay:10.37,2013-07-21 13:59:00,
2013-07-21 16:00:00,79.7,58.3,29.95,NW,314,4.0,4.0,48,0.00,BKN,,0.00,144.0,WeatherDisplay:10.37,2013-07-21 14:00:00,
2013-07-21 16:03:00,79.9,57.9,29.95,NW,309,3.5,3.5,47,0.00,BKN,,0.00,160.0,WeatherDisplay:10.37,2013-07-21 14:03:00,
2013-07-21 16:04:00,80.0,57.4,29.95,WNW,303,4.6,4.6,46,0.00,SCT,,0.00,162.0,WeatherDisplay:10.37,2013-07-21 14:04:00,
2013-07-21 16:06:00,80.1,58.0,29.95,WNW,295,4.0,4.0,47,0.00,SCT,,0.00,162.0,WeatherDisplay:10.37,2013-07-21 14:06:00,
2013-07-21 16:08:00,80.2,57.5,29.95,West,281,4.6,4.6,46,0.00,SCT,,0.00,174.0,WeatherDisplay:10.37,2013-07-21 14:08:00,
2013-07-21 16:11:00,80.5,57.8,29.95,NW,305,5.8,5.8,46,0.00,SCT,,0.00,181.0,WeatherDisplay:10.37,2013-07-21 14:11:00,
2013-07-21 16:14:00,80.7,58.6,29.96,NW,306,8.1,8.1,47,0.00,SCT,,0.00,185.0,WeatherDisplay:10.37,2013-07-21 14:14:00,
2013-07-21 16:16:00,81.0,60.0,29.96,WNW,295,7.0,7.0,49,0.00,SCT,,0.00,188.0,WeatherDisplay:10.37,2013-07-21 14:16:00,
2013-07-21 16:19:00,81.3,62.0,29.96,WNW,297,6.9,6.9,52,0.00,SCT,,0.00,202.0,WeatherDisplay:10.37,2013-07-21 14:19:00,
2013-07-21 16:21:00,81.4,62.6,29.96,NW,319,4.6,4.6,53,0.00,SCT,,0.00,202.0,WeatherDisplay:10.37,2013-07-21 14:21:00,
2013-07-21 16:24:00,81.5,63.8,29.96,North,5,3.5,3.5,55,0.00,SCT,,0.00,220.0,WeatherDisplay:10.37,2013-07-21 14:24:00,
2013-07-21 16:25:00,81.5,63.8,29.96,North,5,3.5,3.5,55,0.00,SCT,,0.00,221.0,WeatherDisplay:10.37,2013-07-21 14:25:00,
2013-07-21 16:26:00,81.6,63.9,29.97,NE,44,4.0,4.0,55,0.00,SCT,,0.00,227.0,WeatherDisplay:10.37,2013-07-21 14:26:00,
2013-07-21 16:27:00,81.6,63.9,29.97,North,9,4.0,4.0,55,0.00,SCT,,0.00,227.0,WeatherDisplay:10.37,2013-07-21 14:27:00,
2013-07-21 16:29:00,81.7,65.5,29.97,NNE,13,3.5,3.5,58,0.00,SCT,,0.00,265.0,WeatherDisplay:10.37,2013-07-21 14:29:00,
2013-07-21 16:30:00,81.7,65.5,29.98,North,5,1.2,1.2,58,0.00,SCT,,0.00,278.0,WeatherDisplay:10.37,2013-07-21 14:30:00,
2013-07-21 16:31:00,81.7,65.5,29.97,North,351,1.2,1.2,58,0.00,SCT,,0.00,278.0,WeatherDisplay:10.37,2013-07-21 14:31:00,
2013-07-21 16:32:00,81.7,65.5,29.97,North,355,2.3,2.3,58,0.00,SCT,,0.00,292.0,WeatherDisplay:10.37,2013-07-21 14:32:00,
2013-07-21 16:34:00,81.8,65.6,29.98,NW,326,0.0,0.0,58,0.00,FEW,,0.00,301.0,WeatherDisplay:10.37,2013-07-21 14:34:00,
2013-07-21 16:35:00,81.9,65.7,29.98,NW,326,0.0,0.0,58,0.00,FEW,,0.00,287.0,WeatherDisplay:10.37,2013-07-21 14:35:00,
2013-07-21 16:36:00,82.0,65.8,29.98,East,79,0.0,0.0,58,0.00,FEW,,0.00,281.0,WeatherDisplay:10.37,2013-07-21 14:36:00,
2013-07-21 16:37:00,82.0,65.8,29.98,ESE,123,3.0,3.0,58,0.00,FEW,,0.00,264.0,WeatherDisplay:10.37,2013-07-21 14:37:00,
2013-07-21 16:38:00,82.0,65.3,29.98,SE,128,3.5,3.5,57,0.00,FEW,,0.00,264.0,WeatherDisplay:10.37,2013-07-21 14:38:00,
2013-07-21 16:40:00,82.0,64.2,29.98,SE,128,3.5,3.5,55,0.00,FEW,,0.00,260.0,WeatherDisplay:10.37,2013-07-21 14:40:00,
2013-07-21 16:42:00,82.0,63.2,29.98,SE,128,0.0,0.0,53,0.00,FEW,,0.00,257.0,WeatherDisplay:10.37,2013-07-21 14:42:00,
2013-07-21 16:43:00,82.1,63.3,29.98,SE,128,0.0,0.0,53,0.00,FEW,,0.00,218.0,WeatherDisplay:10.37,2013-07-21 14:43:00,
2013-07-21 16:45:00,82.5,64.2,29.98,SSE,159,0.0,0.0,54,0.00,FEW,,0.00,188.0,WeatherDisplay:10.37,2013-07-21 14:45:00,
2013-07-21 16:48:00,82.7,63.8,29.98,East,80,3.5,3.5,53,0.00,SCT,,0.00,174.0,WeatherDisplay:10.37,2013-07-21 14:48:00,
2013-07-21 16:49:00,82.8,63.4,29.98,East,80,0.0,0.0,52,0.00,SCT,,0.00,174.0,WeatherDisplay:10.37,2013-07-21 14:49:00,
2013-07-21 16:50:00,82.8,63.4,29.98,ENE,77,6.9,6.9,52,0.00,SCT,,0.00,165.0,WeatherDisplay:10.37,2013-07-21 14:50:00,
2013-07-21 16:51:00,82.8,63.4,29.98,ENE,68,6.9,6.9,52,0.00,SCT,,0.00,163.0,WeatherDisplay:10.37,2013-07-21 14:51:00,
2013-07-21 16:53:00,83.0,64.1,29.98,North,360,8.1,8.1,53,0.00,SCT,,0.00,155.0,WeatherDisplay:10.37,2013-07-21 14:53:00,
2013-07-21 16:54:00,83.0,64.1,29.98,NNE,28,8.0,8.0,53,0.00,SCT,,0.00,155.0,WeatherDisplay:10.37,2013-07-21 14:54:00,
2013-07-21 16:56:00,82.9,65.1,29.98,NNE,14,10.4,10.4,55,0.00,SCT,,0.00,144.0,WeatherDisplay:10.37,2013-07-21 14:56:00,
2013-07-21 16:59:00,82.6,64.8,29.98,ENE,64,9.2,9.2,55,0.00,SCT,,0.00,137.0,WeatherDisplay:10.37,2013-07-21 14:59:00,
2013-07-21 17:00:00,82.4,64.6,29.98,NE,55,8.1,8.1,55,0.00,SCT,,0.00,137.0,WeatherDisplay:10.37,2013-07-21 15:00:00,
2013-07-21 17:01:00,82.3,64.5,29.98,NE,45,10.4,10.4,55,0.00,SCT,,0.00,132.0,WeatherDisplay:10.37,2013-07-21 15:01:00,
2013-07-21 17:04:00,82.0,64.8,29.98,NNE,27,9.2,9.2,56,0.00,SCT,,0.00,130.0,WeatherDisplay:10.37,2013-07-21 15:04:00,
2013-07-21 17:05:00,81.9,64.7,29.98,North,360,13.0,13.0,56,0.00,SCT,,0.00,130.0,WeatherDisplay:10.37,2013-07-21 15:05:00,
2013-07-21 17:06:00,81.7,64.0,29.97,North,11,16.1,16.1,55,0.00,SCT,,0.00,130.0,WeatherDisplay:10.37,2013-07-21 15:06:00,
2013-07-21 17:09:00,81.0,61.7,29.97,NNE,32,19.6,19.6,52,0.00,SCT,,0.00,120.0,WeatherDisplay:10.37,2013-07-21 15:09:00,
2013-07-21 17:10:00,80.8,61.5,29.97,NE,45,13.8,13.8,52,0.00,SCT,,0.00,120.0,WeatherDisplay:10.37,2013-07-21 15:10:00,
2013-07-21 17:11:00,80.6,61.3,29.97,NE,44,12.7,12.7,52,0.00,SCT,,0.00,120.0,WeatherDisplay:10.37,2013-07-21 15:11:00,
2013-07-21 17:14:00,80.1,61.4,29.97,NE,41,9.2,9.2,53,0.00,SCT,,0.00,125.0,WeatherDisplay:10.37,2013-07-21 15:14:00,
2013-07-21 17:15:00,80.0,61.3,29.97,NE,36,9.2,9.2,53,0.00,SCT,,0.00,125.0,WeatherDisplay:10.37,2013-07-21 15:15:00,
2013-07-21 17:16:00,80.0,61.9,29.97,NE,40,8.1,8.1,54,0.00,SCT,,0.00,125.0,WeatherDisplay:10.37,2013-07-21 15:16:00,
2013-07-21 17:19:00,79.8,61.7,29.97,ENE,67,9.0,9.0,54,0.00,SCT,,0.00,125.0,WeatherDisplay:10.37,2013-07-21 15:19:00,
2013-07-21 17:20:00,79.8,61.7,29.97,NE,52,8.1,8.1,54,0.00,SCT,,0.00,125.0,WeatherDisplay:10.37,2013-07-21 15:20:00,
2013-07-21 17:21:00,79.7,61.6,29.97,NE,49,9.2,9.2,54,0.00,SCT,,0.00,125.0,WeatherDisplay:10.37,2013-07-21 15:21:00,
2013-07-21 17:22:00,79.7,61.6,29.97,NE,42,11.5,11.5,54,0.00,SCT,,0.00,125.0,WeatherDisplay:10.37,2013-07-21 15:22:00,
2013-07-21 17:25:00,79.6,62.0,29.97,NE,44,10.4,10.4,55,0.00,SCT,,0.00,120.0,WeatherDisplay:10.37,2013-07-21 15:25:00,
2013-07-21 17:26:00,79.5,61.9,29.97,East,87,10.4,10.4,55,0.00,SCT,,0.00,120.0,WeatherDisplay:10.37,2013-07-21 15:26:00,
2013-07-21 17:27:00,79.4,61.8,29.96,NE,47,9.2,9.2,55,0.00,SCT,,0.00,120.0,WeatherDisplay:10.37,2013-07-21 15:27:00,
2013-07-21 17:30:00,79.3,61.7,29.96,ENE,74,6.9,6.9,55,0.00,SCT,,0.00,120.0,WeatherDisplay:10.37,2013-07-21 15:30:00,
2013-07-21 17:32:00,79.3,61.7,29.96,NE,45,6.9,6.9,55,0.00,SCT,,0.00,120.0,WeatherDisplay:10.37,2013-07-21 15:32:00,
2013-07-21 17:35:00,79.2,62.1,29.95,East,86,6.0,6.0,56,0.00,SCT,,0.00,118.0,WeatherDisplay:10.37,2013-07-21 15:35:00,
2013-07-21 17:36:00,79.3,61.7,29.95,East,88,6.9,6.9,55,0.00,SCT,,0.00,118.0,WeatherDisplay:10.37,2013-07-21 15:36:00,
2013-07-21 17:37:00,79.2,61.6,29.95,East,94,8.1,8.1,55,0.00,SCT,,0.00,113.0,WeatherDisplay:10.37,2013-07-21 15:37:00,
2013-07-21 17:38:00,79.2,61.6,29.95,ENE,60,8.1,8.1,55,0.00,SCT,,0.00,113.0,WeatherDisplay:10.37,2013-07-21 15:38:00,
2013-07-21 17:40:00,79.3,61.7,29.95,ENE,59,5.8,5.8,55,0.00,SCT,,0.00,107.0,WeatherDisplay:10.37,2013-07-21 15:40:00,
2013-07-21 17:41:00,79.3,61.7,29.95,NE,52,6.0,6.0,55,0.00,SCT,,0.00,107.0,WeatherDisplay:10.37,2013-07-21 15:41:00,
2013-07-21 17:43:00,79.3,61.7,29.95,NE,37,5.8,5.8,55,0.00,SCT,,0.00,105.0,WeatherDisplay:10.37,2013-07-21 15:43:00,
2013-07-21 17:44:00,79.3,61.7,29.95,ENE,76,5.8,5.8,55,0.00,SCT,,0.00,104.0,WeatherDisplay:10.37,2013-07-21 15:44:00,
2013-07-21 17:45:00,79.4,61.8,29.95,NE,52,10.4,10.4,55,0.00,SCT,,0.00,102.0,WeatherDisplay:10.37,2013-07-21 15:45:00,
2013-07-21 17:46:00,79.3,61.7,29.95,NE,53,10.4,10.4,55,0.00,SCT,,0.00,102.0,WeatherDisplay:10.37,2013-07-21 15:46:00,
2013-07-21 17:48:00,79.4,61.8,29.95,ENE,74,10.4,10.4,55,0.00,SCT,,0.00,102.0,WeatherDisplay:10.37,2013-07-21 15:48:00,
2013-07-21 17:49:00,79.4,61.8,29.95,ENE,77,11.5,11.5,55,0.00,SCT,,0.00,102.0,WeatherDisplay:10.37,2013-07-21 15:49:00,
2013-07-21 17:51:00,79.3,61.2,29.95,NNE,14,11.5,11.5,54,0.00,SCT,,0.00,97.0,WeatherDisplay:10.37,2013-07-21 15:51:00,
2013-07-21 17:53:00,79.3,60.7,29.95,NE,50,8.1,8.1,53,0.00,SCT,,0.00,95.0,WeatherDisplay:10.37,2013-07-21 15:53:00,
2013-07-21 17:54:00,79.3,61.2,29.95,NE,34,8.1,8.1,54,0.00,SCT,,0.00,95.0,WeatherDisplay:10.37,2013-07-21 15:54:00,
2013-07-21 17:56:00,79.4,60.8,29.95,NE,41,6.0,6.0,53,0.00,SCT,,0.00,91.0,WeatherDisplay:10.37,2013-07-21 15:56:00,
2013-07-21 17:58:00,79.4,60.2,29.95,NNE,32,11.5,11.5,52,0.00,SCT,,0.00,88.0,WeatherDisplay:10.37,2013-07-21 15:58:00,
2013-07-21 17:59:00,79.3,60.1,29.95,NNE,32,8.1,8.1,52,0.00,SCT,,0.00,86.0,WeatherDisplay:10.37,2013-07-21 15:59:00,
2013-07-21 18:01:00,79.2,59.5,29.95,NE,51,11.5,11.5,51,0.00,SCT,,0.00,83.0,WeatherDisplay:10.37,2013-07-21 16:01:00,
2013-07-21 18:02:00,79.2,59.5,29.95,NE,42,11.5,11.5,51,0.00,SCT,,0.00,83.0,WeatherDisplay:10.37,2013-07-21 16:02:00,
2013-07-21 18:03:00,79.1,59.4,29.96,NNE,19,11.5,11.5,51,0.00,SCT,,0.00,79.0,WeatherDisplay:10.37,2013-07-21 16:03:00,
2013-07-21 18:05:00,79.0,59.9,29.96,NNE,30,11.5,11.5,52,0.00,SCT,,0.00,79.0,WeatherDisplay:10.37,2013-07-21 16:05:00,
2013-07-21 18:06:00,79.0,59.9,29.97,NE,44,13.8,13.8,52,0.00,SCT,,0.00,79.0,WeatherDisplay:10.37,2013-07-21 16:06:00,
2013-07-21 18:07:00,78.8,59.7,29.97,NNE,30,13.8,13.8,52,0.00,SCT,,0.00,76.0,WeatherDisplay:10.37,2013-07-21 16:07:00,
2013-07-21 18:09:00,78.6,59.5,29.97,ENE,60,19.6,19.6,52,0.00,SCT,,0.00,76.0,WeatherDisplay:10.37,2013-07-21 16:09:00,
2013-07-21 18:10:00,78.5,59.9,29.97,NE,44,16.1,16.1,53,0.00,SCT,,0.00,76.0,WeatherDisplay:10.37,2013-07-21 16:10:00,
2013-07-21 18:11:00,78.2,59.7,29.97,NE,55,17.3,17.3,53,0.00,SCT,,0.00,69.0,WeatherDisplay:10.37,2013-07-21 16:11:00,
2013-07-21 18:12:00,78.0,59.5,29.97,ENE,74,9.2,9.2,53,0.00,SCT,,0.00,67.0,WeatherDisplay:10.37,2013-07-21 16:12:00,
2013-07-21 18:13:00,77.9,59.4,29.97,ENE,73,9.2,9.2,53,0.00,SCT,,0.00,65.0,WeatherDisplay:10.37,2013-07-21 16:13:00,
2013-07-21 18:14:00,77.8,59.8,29.97,East,80,10.4,10.4,54,0.00,BKN,,0.00,63.0,WeatherDisplay:10.37,2013-07-21 16:14:00,
2013-07-21 18:15:00,77.5,59.5,29.97,ENE,61,17.3,17.3,54,0.00,BKN,,0.00,62.0,WeatherDisplay:10.37,2013-07-21 16:15:00,
2013-07-21 18:16:00,77.4,60.0,29.97,East,92,17.3,17.3,55,0.00,BKN,,0.00,62.0,WeatherDisplay:10.37,2013-07-21 16:16:00,
2013-07-21 18:17:00,77.2,59.8,29.97,ENE,74,12.0,12.0,55,0.00,BKN,,0.00,56.0,WeatherDisplay:10.37,2013-07-21 16:17:00,
2013-07-21 18:19:00,77.1,59.7,29.97,NNE,24,13.8,13.8,55,0.00,BKN,,0.00,56.0,WeatherDisplay:10.37,2013-07-21 16:19:00,
2013-07-21 18:21:00,76.7,59.3,29.97,ENE,72,17.3,17.3,55,0.00,BKN,,0.00,51.0,WeatherDisplay:10.37,2013-07-21 16:21:00,
2013-07-21 18:23:00,76.4,60.0,29.97,ENE,65,9.2,9.2,57,0.00,BKN,,0.00,47.0,WeatherDisplay:10.37,2013-07-21 16:23:00,
2013-07-21 18:24:00,76.3,59.9,29.97,ENE,73,11.5,11.5,57,0.00,BKN,,0.00,46.0,WeatherDisplay:10.37,2013-07-21 16:24:00,
2013-07-21 18:27:00,76.0,60.2,29.98,ENE,74,10.4,10.4,58,0.00,BKN,,0.00,44.0,WeatherDisplay:10.37,2013-07-21 16:27:00,
2013-07-21 18:29:00,75.9,60.5,29.98,East,86,10.4,10.4,59,0.00,BKN,,0.00,40.0,WeatherDisplay:10.37,2013-07-21 16:29:00,
2013-07-21 18:30:00,75.8,60.4,29.98,ENE,67,11.5,11.5,59,0.00,BKN,,0.00,40.0,WeatherDisplay:10.37,2013-07-21 16:30:00,
2013-07-21 18:32:00,75.6,60.7,29.98,East,80,11.5,11.5,60,0.00,BKN,,0.00,40.0,WeatherDisplay:10.37,2013-07-21 16:32:00,
2013-07-21 18:33:00,75.3,60.5,29.98,ENE,63,11.5,11.5,60,0.00,BKN,,0.00,37.0,WeatherDisplay:10.37,2013-07-21 16:33:00,
2013-07-21 18:34:00,75.4,60.5,29.98,East,89,11.5,11.5,60,0.00,BKN,,0.00,37.0,WeatherDisplay:10.37,2013-07-21 16:34:00,
2013-07-21 18:35:00,75.2,60.8,29.99,East,90,11.5,11.5,61,0.00,BKN,,0.00,37.0,WeatherDisplay:10.37,2013-07-21 16:35:00,
2013-07-21 18:37:00,75.1,61.2,29.99,ESE,115,17.3,17.3,62,0.00,BKN,,0.00,35.0,WeatherDisplay:10.37,2013-07-21 16:37:00,
2013-07-21 18:39:00,74.9,61.0,29.99,ENE,70,17.0,17.0,62,0.00,BKN,,0.00,35.0,WeatherDisplay:10.37,2013-07-21 16:39:00,
2013-07-21 18:41:00,74.5,60.6,29.99,ENE,67,11.5,11.5,62,0.00,BKN,,0.00,35.0,WeatherDisplay:10.37,2013-07-21 16:41:00,
2013-07-21 18:43:00,74.1,60.7,30.00,ENE,76,17.3,17.3,63,0.00,BKN,,0.00,33.0,WeatherDisplay:10.37,2013-07-21 16:43:00,
2013-07-21 18:44:00,74.0,60.6,30.00,East,88,10.4,10.4,63,0.00,BKN,,0.00,33.0,WeatherDisplay:10.37,2013-07-21 16:44:00,
2013-07-21 18:46:00,73.7,60.8,30.00,ENE,63,18.4,18.4,64,0.00,BKN,,0.00,33.0,WeatherDisplay:10.37,2013-07-21 16:46:00,
2013-07-21 18:48:00,73.6,61.5,30.00,North,355,11.5,11.5,66,0.00,BKN,,0.00,33.0,WeatherDisplay:10.37,2013-07-21 16:48:00,
2013-07-21 18:49:00,73.4,61.8,30.00,NE,55,8.1,8.1,67,0.00,BKN,,0.00,33.0,WeatherDisplay:10.37,2013-07-21 16:49:00,
2013-07-21 18:50:00,73.4,61.8,30.00,East,88,6.0,6.0,67,0.00,BKN,,0.00,33.0,WeatherDisplay:10.37,2013-07-21 16:50:00,
2013-07-21 18:51:00,73.3,62.1,29.99,NE,53,10.4,10.4,68,0.00,BKN,,0.00,32.0,WeatherDisplay:10.37,2013-07-21 16:51:00,
2013-07-21 18:53:00,73.2,62.0,29.99,ENE,76,11.0,11.0,68,0.00,BKN,,0.00,32.0,WeatherDisplay:10.37,2013-07-21 16:53:00,
2013-07-21 18:55:00,73.0,61.8,30.00,NNE,28,9.2,9.2,68,0.00,BKN,,0.00,32.0,WeatherDisplay:10.37,2013-07-21 16:55:00,
2013-07-21 18:56:00,73.0,62.2,30.00,NE,44,9.2,9.2,69,0.00,BKN,,0.00,30.0,WeatherDisplay:10.37,2013-07-21 16:56:00,
2013-07-21 18:58:00,73.0,61.8,30.00,NE,36,12.7,12.7,68,0.00,BKN,,0.00,30.0,WeatherDisplay:10.37,2013-07-21 16:58:00,
2013-07-21 19:00:00,73.0,61.8,30.00,ENE,76,13.8,13.8,68,0.00,BKN,,0.00,30.0,WeatherDisplay:10.37,2013-07-21 17:00:00,
2013-07-21 19:02:00,73.0,61.8,30.00,ENE,76,10.0,10.0,68,0.00,BKN,,0.00,28.0,WeatherDisplay:10.37,2013-07-21 17:02:00,
2013-07-21 19:04:00,72.9,61.7,30.00,ENE,71,12.7,12.7,68,0.00,BKN,,0.00,28.0,WeatherDisplay:10.37,2013-07-21 17:04:00,
2013-07-21 19:05:00,72.9,61.7,30.00,East,88,16.1,16.1,68,0.00,BKN,,0.00,25.0,WeatherDisplay:10.37,2013-07-21 17:05:00,
2013-07-21 19:06:00,72.8,61.6,29.99,ENE,71,15.0,15.0,68,0.00,BKN,,0.00,25.0,WeatherDisplay:10.37,2013-07-21 17:06:00,
2013-07-21 19:07:00,72.7,61.5,29.99,East,80,10.0,10.0,68,0.00,BKN,,0.00,19.0,WeatherDisplay:10.37,2013-07-21 17:07:00,
2013-07-21 19:10:00,72.5,61.7,29.99,ENE,68,12.7,12.7,69,0.00,BKN,,0.00,18.0,WeatherDisplay:10.37,2013-07-21 17:10:00,
2013-07-21 19:11:00,72.5,61.7,29.99,ENE,65,11.5,11.5,69,0.00,BKN,,0.00,16.0,WeatherDisplay:10.37,2013-07-21 17:11:00,
2013-07-21 19:12:00,72.5,61.7,29.99,East,93,7.0,7.0,69,0.00,BKN,,0.00,14.0,WeatherDisplay:10.37,2013-07-21 17:12:00,
2013-07-21 19:13:00,72.5,61.7,29.99,East,95,8.1,8.1,69,0.00,BKN,,0.00,14.0,WeatherDisplay:10.37,2013-07-21 17:13:00,
2013-07-21 19:16:00,72.3,61.6,29.99,ENE,69,11.5,11.5,69,0.00,BKN,,0.00,14.0,WeatherDisplay:10.37,2013-07-21 17:16:00,
2013-07-21 19:17:00,72.3,61.6,29.99,East,83,8.1,8.1,69,0.00,BKN,,0.00,12.0,WeatherDisplay:10.37,2013-07-21 17:17:00,
2013-07-21 19:18:00,72.2,61.5,29.99,East,90,8.1,8.1,69,0.00,BKN,,0.00,12.0,WeatherDisplay:10.37,2013-07-21 17:18:00,
2013-07-21 19:21:00,72.1,61.8,29.99,ENE,76,10.4,10.4,70,0.01,RA,,0.01,12.0,WeatherDisplay:10.37,2013-07-21 17:21:00,
2013-07-21 19:22:00,72.0,62.1,30.00,East,82,7.0,7.0,71,0.01,RA,,0.01,11.0,WeatherDisplay:10.37,2013-07-21 17:22:00,
2013-07-21 19:23:00,72.0,62.5,30.00,NE,42,4.6,4.6,72,0.01,RA,,0.01,11.0,WeatherDisplay:10.37,2013-07-21 17:23:00,
2013-07-21 19:26:00,71.8,62.3,30.00,ENE,78,10.4,10.4,72,0.01,RA,,0.01,11.0,WeatherDisplay:10.37,2013-07-21 17:26:00,
2013-07-21 19:28:00,71.6,62.1,30.00,NE,45,9.2,9.2,72,0.01,RA,,0.01,11.0,WeatherDisplay:10.37,2013-07-21 17:28:00,
2013-07-21 19:31:00,71.2,62.1,30.00,ENE,69,10.4,10.4,73,0.01,,,0.01,11.0,WeatherDisplay:10.37,2013-07-21 17:31:00,
2013-07-21 19:32:00,71.2,62.1,30.00,NE,38,5.0,5.0,73,0.01,,,0.01,11.0,WeatherDisplay:10.37,2013-07-21 17:32:00,
2013-07-21 19:33:00,71.2,62.1,30.00,East,82,8.0,8.0,73,0.01,CLR,,0.01,11.0,WeatherDisplay:10.37,2013-07-21 17:33:00,
2013-07-21 19:34:00,71.2,62.1,30.00,ESE,111,8.1,8.1,73,0.01,CLR,,0.01,11.0,WeatherDisplay:10.37,2013-07-21 17:34:00,
2013-07-21 19:36:00,71.2,62.1,30.00,ENE,64,11.5,11.5,73,0.01,CLR,,0.01,11.0,WeatherDisplay:10.37,2013-07-21 17:36:00,
2013-07-21 19:37:00,71.2,62.1,30.00,East,101,11.5,11.5,73,0.01,CLR,,0.01,11.0,WeatherDisplay:10.37,2013-07-21 17:37:00,
2013-07-21 19:38:00,71.2,62.1,30.00,ENE,74,11.5,11.5,73,0.01,CLR,,0.02,11.0,WeatherDisplay:10.37,2013-07-21 17:38:00,
2013-07-21 19:39:00,71.1,62.0,30.00,ENE,59,13.0,13.0,73,0.02,RA,,0.02,11.0,WeatherDisplay:10.37,2013-07-21 17:39:00,
2013-07-21 19:42:00,71.0,61.5,30.00,ENE,71,15.0,15.0,72,0.02,RA,,0.02,11.0,WeatherDisplay:10.37,2013-07-21 17:42:00,
2013-07-21 19:43:00,71.0,61.5,30.00,ENE,64,15.0,15.0,72,0.02,RA,,0.02,11.0,WeatherDisplay:10.37,2013-07-21 17:43:00,
2013-07-21 19:44:00,71.0,61.5,30.00,ENE,78,15.0,15.0,72,0.02,RA,,0.02,11.0,WeatherDisplay:10.37,2013-07-21 17:44:00,
2013-07-21 19:47:00,71.1,61.6,30.00,NE,56,13.8,13.8,72,0.02,RA,,0.02,11.0,WeatherDisplay:10.37,2013-07-21 17:47:00,
2013-07-21 19:48:00,71.1,61.6,30.00,East,90,11.5,11.5,72,0.02,RA,,0.02,11.0,WeatherDisplay:10.37,2013-07-21 17:48:00,
2013-07-21 19:49:00,71.2,61.7,30.00,ENE,65,10.4,10.4,72,0.02,,,0.02,11.0,WeatherDisplay:10.37,2013-07-21 17:49:00,
2013-07-21 19:50:00,71.2,61.7,30.00,NE,44,12.7,12.7,72,0.02,,,0.02,11.0,WeatherDisplay:10.37,2013-07-21 17:50:00,
2013-07-21 19:53:00,71.2,61.3,30.00,ENE,71,13.0,13.0,71,0.02,CLR,,0.02,11.0,WeatherDisplay:10.37,2013-07-21 17:53:00,
2013-07-21 19:54:00,71.3,61.0,30.00,East,84,17.3,17.3,70,0.02,CLR,,0.02,11.0,WeatherDisplay:10.37,2013-07-21 17:54:00,
2013-07-21 19:56:00,71.4,61.1,30.00,ENE,63,15.0,15.0,70,0.02,CLR,,0.02,11.0,WeatherDisplay:10.37,2013-07-21 17:56:00,
2013-07-21 19:58:00,71.6,61.3,30.00,ENE,76,14.0,14.0,70,0.02,CLR,,0.02,11.0,WeatherDisplay:10.37,2013-07-21 17:58:00,
2013-07-21 20:00:00,71.6,61.3,30.00,East,92,16.1,16.1,70,0.02,CLR,,0.02,11.0,WeatherDisplay:10.37,2013-07-21 18:00:00,
2013-07-21 20:02:00,71.7,61.4,30.00,ENE,71,13.8,13.8,70,0.02,CLR,,0.02,11.0,WeatherDisplay:10.37,2013-07-21 18:02:00,
2013-07-21 20:03:00,71.8,61.1,30.00,ENE,74,16.1,16.1,69,0.02,CLR,,0.02,9.0,WeatherDisplay:10.37,2013-07-21 18:03:00,
2013-07-21 20:05:00,71.9,60.8,30.00,ENE,64,11.5,11.5,68,0.02,CLR,,0.02,9.0,WeatherDisplay:10.37,2013-07-21 18:05:00,
2013-07-21 20:07:00,72.0,60.9,30.00,ENE,69,13.8,13.8,68,0.02,CLR,,0.02,9.0,WeatherDisplay:10.37,2013-07-21 18:07:00,
2013-07-21 20:09:00,72.1,61.0,30.00,NE,48,11.5,11.5,68,0.02,CLR,,0.02,9.0,WeatherDisplay:10.37,2013-07-21 18:09:00,
2013-07-21 20:11:00,72.1,61.0,29.99,NE,46,12.7,12.7,68,0.02,CLR,,0.02,9.0,WeatherDisplay:10.37,2013-07-21 18:11:00,
2013-07-21 20:13:00,72.2,61.0,29.99,NE,53,12.7,12.7,68,0.02,CLR,,0.02,9.0,WeatherDisplay:10.37,2013-07-21 18:13:00,
2013-07-21 20:14:00,72.2,60.6,29.99,NE,51,12.7,12.7,67,0.02,CLR,,0.02,7.0,WeatherDisplay:10.37,2013-07-21 18:14:00,
2013-07-21 20:15:00,72.2,60.2,29.99,NE,53,12.7,12.7,66,0.02,CLR,,0.02,7.0,WeatherDisplay:10.37,2013-07-21 18:15:00,
2013-07-21 20:16:00,72.3,60.7,29.99,NE,53,15.0,15.0,67,0.02,CLR,,0.02,7.0,WeatherDisplay:10.37,2013-07-21 18:16:00,
2013-07-21 20:18:00,72.4,60.8,29.99,NE,46,11.5,11.5,67,0.02,CLR,,0.02,5.0,WeatherDisplay:10.37,2013-07-21 18:18:00,
2013-07-21 20:19:00,72.4,60.8,29.99,NE,51,11.5,11.5,67,0.02,CLR,,0.02,0.0,WeatherDisplay:10.37,2013-07-21 18:19:00,
2013-07-21 20:20:00,72.4,60.8,29.99,ENE,70,18.0,18.0,67,0.02,CLR,,0.02,0.0,WeatherDisplay:10.37,2013-07-21 18:20:00,
2013-07-21 20:21:00,72.4,60.0,29.99,NE,49,19.6,19.6,65,0.01,CLR,,0.02,0.0,WeatherDisplay:10.37,2013-07-21 18:21:00,
2013-07-21 20:24:00,72.4,60.0,29.99,NE,40,17.3,17.3,65,0.01,CLR,,0.02,0.0,WeatherDisplay:10.37,2013-07-21 18:24:00,
2013-07-21 20:25:00,72.4,60.0,29.99,NE,34,18.4,18.4,65,0.01,CLR,,0.02,0.0,WeatherDisplay:10.37,2013-07-21 18:25:00,
2013-07-21 20:27:00,72.5,60.1,29.99,NE,46,11.5,11.5,65,0.01,CLR,,0.02,0.0,WeatherDisplay:10.37,2013-07-21 18:27:00,
2013-07-21 20:29:00,72.5,60.1,29.99,NE,40,10.4,10.4,65,0.01,CLR,,0.02,0.0,WeatherDisplay:10.37,2013-07-21 18:29:00,
2013-07-21 20:30:00,72.5,60.1,29.99,NE,43,11.5,11.5,65,0.01,CLR,,0.02,0.0,WeatherDisplay:10.37,2013-07-21 18:30:00,
2013-07-21 20:31:00,72.4,60.0,29.99,NE,46,14.0,14.0,65,0.01,CLR,,0.02,0.0,WeatherDisplay:10.37,2013-07-21 18:31:00,
2013-07-21 20:32:00,72.4,60.0,29.99,NE,51,15.0,15.0,65,0.01,CLR,,0.02,0.0,WeatherDisplay:10.37,2013-07-21 18:32:00,
2013-07-21 20:35:00,72.3,59.9,29.99,North,360,11.5,11.5,65,0.01,CLR,,0.02,0.0,WeatherDisplay:10.37,2013-07-21 18:35:00,
2013-07-21 20:36:00,72.3,59.4,29.99,NE,54,11.5,11.5,64,0.01,CLR,,0.02,0.0,WeatherDisplay:10.37,2013-07-21 18:36:00,
2013-07-21 20:37:00,72.3,59.4,29.98,NE,55,9.2,9.2,64,0.01,CLR,,0.02,0.0,WeatherDisplay:10.37,2013-07-21 18:37:00,
2013-07-21 20:38:00,72.3,59.4,29.99,NE,47,9.2,9.2,64,0.01,CLR,,0.02,0.0,WeatherDisplay:10.37,2013-07-21 18:38:00,
2013-07-21 20:40:00,72.4,59.5,29.98,NE,53,9.2,9.2,64,0.00,CLR,,0.02,0.0,WeatherDisplay:10.37,2013-07-21 18:40:00,
2013-07-21 20:41:00,72.4,59.5,29.98,ENE,63,9.2,9.2,64,0.00,CLR,,0.02,0.0,WeatherDisplay:10.37,2013-07-21 18:41:00,
2013-07-21 20:43:00,72.5,59.6,29.98,ENE,69,11.0,11.0,64,0.00,CLR,,0.02,0.0,WeatherDisplay:10.37,2013-07-21 18:43:00,
2013-07-21 20:45:00,72.7,58.9,29.98,ENE,59,11.5,11.5,62,0.00,CLR,,0.02,0.0,WeatherDisplay:10.37,2013-07-21 18:45:00,
2013-07-21 20:46:00,72.7,58.9,29.98,ENE,69,11.5,11.5,62,0.00,CLR,,0.02,0.0,WeatherDisplay:10.37,2013-07-21 18:46:00,
2013-07-21 20:48:00,72.8,59.0,29.98,NE,37,10.4,10.4,62,0.00,CLR,,0.02,0.0,WeatherDisplay:10.37,2013-07-21 18:48:00,
2013-07-21 20:51:00,73.0,59.2,29.98,ENE,65,11.5,11.5,62,0.00,CLR,,0.02,0.0,WeatherDisplay:10.37,2013-07-21 18:51:00,
2013-07-21 20:52:00,73.0,59.2,29.98,ENE,73,10.4,10.4,62,0.00,CLR,,0.02,0.0,WeatherDisplay:10.37,2013-07-21 18:52:00,
2013-07-21 20:53:00,73.0,59.2,29.98,NE,46,11.5,11.5,62,0.00,CLR,,0.02,0.0,WeatherDisplay:10.37,2013-07-21 18:53:00,
2013-07-21 20:54:00,72.9,59.1,29.98,ENE,58,11.5,11.5,62,0.00,CLR,,0.02,0.0,WeatherDisplay:10.37,2013-07-21 18:54:00,
2013-07-21 20:56:00,72.9,59.1,29.98,NE,45,13.8,13.8,62,0.00,CLR,,0.02,0.0,WeatherDisplay:10.37,2013-07-21 18:56:00,
2013-07-21 20:58:00,72.8,59.0,29.98,ENE,64,11.5,11.5,62,0.00,CLR,,0.02,0.0,WeatherDisplay:10.37,2013-07-21 18:58:00,
2013-07-21 20:59:00,72.7,59.4,29.98,NE,56,10.0,10.0,63,0.00,CLR,,0.02,0.0,WeatherDisplay:10.37,2013-07-21 18:59:00,
2013-07-21 21:02:00,72.6,59.3,29.98,NW,324,8.1,8.1,63,0.00,CLR,,0.02,0.0,WeatherDisplay:10.37,2013-07-21 19:02:00,
2013-07-21 21:03:00,72.5,59.2,29.98,NW,315,6.9,6.9,63,0.00,CLR,,0.02,0.0,WeatherDisplay:10.37,2013-07-21 19:03:00,
2013-07-21 21:04:00,72.4,59.1,29.98,NW,306,6.9,6.9,63,0.00,CLR,,0.02,0.0,WeatherDisplay:10.37,2013-07-21 19:04:00,
2013-07-21 21:05:00,72.4,59.1,29.98,WNW,285,8.1,8.1,63,0.00,CLR,,0.02,0.0,WeatherDisplay:10.37,2013-07-21 19:05:00,
2013-07-21 21:07:00,72.3,59.0,29.99,NNW,341,6.9,6.9,63,0.00,CLR,,0.02,0.0,WeatherDisplay:10.37,2013-07-21 19:07:00,
2013-07-21 21:09:00,72.3,59.0,29.99,NNW,342,3.5,3.5,63,0.00,CLR,,0.02,0.0,WeatherDisplay:10.37,2013-07-21 19:09:00,
2013-07-21 21:10:00,72.3,59.0,29.98,North,5,6.0,6.0,63,0.00,CLR,,0.02,0.0,WeatherDisplay:10.37,2013-07-21 19:10:00,
2013-07-21 21:12:00,72.3,59.0,29.99,North,355,6.9,6.9,63,0.00,CLR,,0.02,0.0,WeatherDisplay:10.37,2013-07-21 19:12:00,
2013-07-21 21:14:00,72.2,59.3,29.98,NNE,25,6.9,6.9,64,0.00,CLR,,0.02,0.0,WeatherDisplay:10.37,2013-07-21 19:14:00,
2013-07-21 21:15:00,72.3,59.4,29.99,NNW,334,5.8,5.8,64,0.00,CLR,,0.02,0.0,WeatherDisplay:10.37,2013-07-21 19:15:00,
2013-07-21 21:17:00,72.2,59.3,29.98,NNE,12,2.3,2.3,64,0.00,CLR,,0.02,0.0,WeatherDisplay:10.37,2013-07-21 19:17:00,
2013-07-21 21:19:00,72.1,59.2,29.99,NNW,335,2.3,2.3,64,0.00,CLR,,0.02,0.0,WeatherDisplay:10.37,2013-07-21 19:19:00,
2013-07-21 21:20:00,72.1,59.7,29.99,NNE,21,1.2,0.0,65,0.00,CLR,,0.02,0.0,WeatherDisplay:10.37,2013-07-21 19:20:00,
2013-07-21 21:21:00,72.1,59.7,29.99,North,351,0.0,0.0,65,0.00,CLR,,0.02,0.0,WeatherDisplay:10.37,2013-07-21 19:21:00,
2013-07-21 21:22:00,72.0,59.6,29.99,North,360,0.0,0.0,65,0.00,CLR,,0.02,0.0,WeatherDisplay:10.37,2013-07-21 19:22:00,
2013-07-21 21:24:00,71.9,59.5,29.99,West,280,0.0,0.0,65,0.00,CLR,,0.02,0.0,WeatherDisplay:10.37,2013-07-21 19:24:00,
2013-07-21 21:25:00,71.8,59.8,29.99,West,264,0.0,0.0,66,0.00,CLR,,0.02,0.0,WeatherDisplay:10.37,2013-07-21 19:25:00,
2013-07-21 21:26:00,71.8,59.8,29.99,West,281,0.0,0.0,66,0.00,CLR,,0.02,0.0,WeatherDisplay:10.37,2013-07-21 19:26:00,
2013-07-21 21:28:00,71.7,59.7,29.99,WNW,284,0.0,0.0,66,0.00,CLR,,0.02,0.0,WeatherDisplay:10.37,2013-07-21 19:28:00,
2013-07-21 21:29:00,71.6,59.6,29.99,WNW,284,0.0,0.0,66,0.00,CLR,,0.02,0.0,WeatherDisplay:10.37,2013-07-21 19:29:00,
2013-07-21 21:30:00,71.6,59.6,29.99,WNW,284,0.0,0.0,66,0.00,CLR,,0.02,0.0,WeatherDisplay:10.37,2013-07-21 19:30:00,
2013-07-21 21:32:00,71.6,59.6,29.99,West,281,0.0,0.0,66,0.00,CLR,,0.02,0.0,WeatherDisplay:10.37,2013-07-21 19:32:00,
2013-07-21 21:33:00,71.6,59.6,29.99,SW,215,0.0,0.0,66,0.00,CLR,,0.02,0.0,WeatherDisplay:10.37,2013-07-21 19:33:00,
2013-07-21 21:35:00,71.5,59.5,29.99,SW,215,0.0,0.0,66,0.00,CLR,,0.02,0.0,WeatherDisplay:10.37,2013-07-21 19:35:00,
2013-07-21 21:37:00,71.4,59.4,29.99,SW,215,0.0,0.0,66,0.00,CLR,,0.02,0.0,WeatherDisplay:10.37,2013-07-21 19:37:00,
2013-07-21 21:39:00,71.4,59.4,29.99,SW,215,0.0,0.0,66,0.00,CLR,,0.02,0.0,WeatherDisplay:10.37,2013-07-21 19:39:00,
2013-07-21 21:40:00,71.4,59.4,29.99,SE,130,0.0,0.0,66,0.00,CLR,,0.02,0.0,WeatherDisplay:10.37,2013-07-21 19:40:00,
2013-07-21 21:42:00,71.4,59.4,29.99,ESE,107,3.5,3.5,66,0.00,CLR,,0.02,0.0,WeatherDisplay:10.37,2013-07-21 19:42:00,
2013-07-21 21:44:00,71.4,59.4,29.99,ENE,71,4.0,4.0,66,0.00,CLR,,0.02,0.0,WeatherDisplay:10.37,2013-07-21 19:44:00,
2013-07-21 21:45:00,71.4,59.4,29.99,ESE,110,4.6,4.6,66,0.00,CLR,,0.02,0.0,WeatherDisplay:10.37,2013-07-21 19:45:00,
2013-07-21 21:46:00,71.4,59.4,29.99,East,94,4.6,4.6,66,0.00,CLR,,0.02,0.0,WeatherDisplay:10.37,2013-07-21 19:46:00,
2013-07-21 21:47:00,71.4,59.4,29.99,ESE,116,2.3,2.3,66,0.00,CLR,,0.02,0.0,WeatherDisplay:10.37,2013-07-21 19:47:00,
2013-07-21 21:49:00,71.5,59.5,29.99,ESE,105,1.2,0.0,66,0.00,CLR,,0.02,0.0,WeatherDisplay:10.37,2013-07-21 19:49:00,
2013-07-21 21:50:00,71.5,59.5,29.99,SSE,156,0.0,0.0,66,0.00,CLR,,0.02,0.0,WeatherDisplay:10.37,2013-07-21 19:50:00,
2013-07-21 21:51:00,71.5,59.5,29.99,South,178,0.0,0.0,66,0.00,CLR,,0.02,0.0,WeatherDisplay:10.37,2013-07-21 19:51:00,
2013-07-21 21:53:00,71.5,59.5,29.99,SW,234,3.0,3.0,66,0.00,CLR,,0.02,0.0,WeatherDisplay:10.37,2013-07-21 19:53:00,
2013-07-21 21:54:00,71.5,59.5,29.99,SW,214,3.5,3.5,66,0.00,CLR,,0.02,0.0,WeatherDisplay:10.37,2013-07-21 19:54:00,
2013-07-21 21:56:00,71.5,59.1,29.99,West,272,3.5,3.5,65,0.00,CLR,,0.02,0.0,WeatherDisplay:10.37,2013-07-21 19:56:00,
2013-07-21 21:57:00,71.6,59.2,29.99,SW,232,0.0,0.0,65,0.00,CLR,,0.02,0.0,WeatherDisplay:10.37,2013-07-21 19:57:00,
2013-07-21 21:58:00,71.6,59.2,29.99,SSE,159,0.0,0.0,65,0.00,CLR,,0.02,0.0,WeatherDisplay:10.37,2013-07-21 19:58:00,
2013-07-21 21:59:00,71.6,59.2,29.99,SSE,149,0.0,0.0,65,0.00,CLR,,0.02,0.0,WeatherDisplay:10.37,2013-07-21 19:59:00,
2013-07-21 22:01:00,71.6,59.2,29.99,SSE,153,0.0,0.0,65,0.00,CLR,,0.02,0.0,WeatherDisplay:10.37,2013-07-21 20:01:00,
2013-07-21 22:02:00,71.6,59.2,29.99,SSE,153,0.0,0.0,65,0.00,CLR,,0.02,0.0,WeatherDisplay:10.37,2013-07-21 20:02:00,
2013-07-21 22:03:00,71.6,59.2,29.99,SSE,153,0.0,0.0,65,0.00,CLR,,0.02,0.0,WeatherDisplay:10.37,2013-07-21 20:03:00,
2013-07-21 22:04:00,71.6,59.2,29.99,ESE,122,3.0,3.0,65,0.00,CLR,,0.02,0.0,WeatherDisplay:10.37,2013-07-21 20:04:00,
2013-07-21 22:06:00,71.7,59.7,29.99,SE,128,3.5,3.5,66,0.00,CLR,,0.02,0.0,WeatherDisplay:10.37,2013-07-21 20:06:00,
2013-07-21 22:08:00,71.7,59.7,29.99,SE,128,0.0,0.0,66,0.00,CLR,,0.02,0.0,WeatherDisplay:10.37,2013-07-21 20:08:00,
2013-07-21 22:09:00,71.7,59.7,29.99,SE,140,0.0,0.0,66,0.00,CLR,,0.02,0.0,WeatherDisplay:10.37,2013-07-21 20:09:00,
2013-07-21 22:10:00,71.7,59.7,29.99,SSW,202,1.2,0.0,66,0.00,CLR,,0.02,0.0,WeatherDisplay:10.37,2013-07-21 20:10:00,
2013-07-21 22:11:00,71.7,59.7,29.99,WSW,253,1.2,0.0,66,0.00,CLR,,0.02,0.0,WeatherDisplay:10.37,2013-07-21 20:11:00,
2013-07-21 22:13:00,71.6,59.6,29.99,NE,35,3.5,3.5,66,0.00,CLR,,0.02,0.0,WeatherDisplay:10.37,2013-07-21 20:13:00,
2013-07-21 22:14:00,71.6,59.2,29.99,ENE,67,4.6,4.6,65,0.00,CLR,,0.02,0.0,WeatherDisplay:10.37,2013-07-21 20:14:00,
2013-07-21 22:15:00,71.6,59.2,29.99,NE,38,3.5,3.5,65,0.00,CLR,,0.02,0.0,WeatherDisplay:10.37,2013-07-21 20:15:00,
2013-07-21 22:16:00,71.6,59.2,29.99,NE,35,0.0,0.0,65,0.00,CLR,,0.02,0.0,WeatherDisplay:10.37,2013-07-21 20:16:00,
2013-07-21 22:18:00,71.6,59.2,29.99,ENE,64,6.9,6.9,65,0.00,CLR,,0.02,0.0,WeatherDisplay:10.37,2013-07-21 20:18:00,
2013-07-21 22:19:00,71.7,59.3,29.99,ENE,71,7.0,7.0,65,0.00,CLR,,0.02,0.0,WeatherDisplay:10.37,2013-07-21 20:19:00,
2013-07-21 22:20:00,71.8,59.4,29.99,NNE,19,8.1,8.1,65,0.00,CLR,,0.02,0.0,WeatherDisplay:10.37,2013-07-21 20:20:00,
2013-07-21 22:21:00,71.8,59.0,29.99,NE,38,11.0,11.0,64,0.00,CLR,,0.02,0.0,WeatherDisplay:10.37,2013-07-21 20:21:00,
2013-07-21 22:24:00,72.0,59.2,29.99,ENE,76,11.5,11.5,64,0.00,CLR,,0.02,0.0,WeatherDisplay:10.37,2013-07-21 20:24:00,
2013-07-21 22:25:00,72.1,59.2,29.99,NE,47,13.0,13.0,64,0.00,CLR,,0.02,0.0,WeatherDisplay:10.37,2013-07-21 20:25:00,
2013-07-21 22:26:00,72.1,58.8,29.99,ENE,57,13.8,13.8,63,0.00,CLR,,0.02,0.0,WeatherDisplay:10.37,2013-07-21 20:26:00,
2013-07-21 22:27:00,72.2,59.3,29.99,NE,47,15.0,15.0,64,0.00,CLR,,0.02,0.0,WeatherDisplay:10.37,2013-07-21 20:27:00,
2013-07-21 22:29:00,72.2,59.3,29.98,NE,42,12.7,12.7,64,0.00,CLR,,0.02,0.0,WeatherDisplay:10.37,2013-07-21 20:29:00,
2013-07-21 22:30:00,72.3,59.4,29.98,ENE,64,10.4,10.4,64,0.00,CLR,,0.02,0.0,WeatherDisplay:10.37,2013-07-21 20:30:00,
2013-07-21 22:31:00,72.3,59.4,29.98,NE,52,10.4,10.4,64,0.00,CLR,,0.02,0.0,WeatherDisplay:10.37,2013-07-21 20:31:00,
2013-07-21 22:32:00,72.2,59.3,29.99,NE,41,10.4,10.4,64,0.00,CLR,,0.02,0.0,WeatherDisplay:10.37,2013-07-21 20:32:00,
2013-07-21 22:35:00,72.2,59.3,29.99,NE,43,11.5,11.5,64,0.00,CLR,,0.02,0.0,WeatherDisplay:10.37,2013-07-21 20:35:00,
2013-07-21 22:36:00,72.2,59.3,29.99,NNE,24,11.5,11.5,64,0.00,CLR,,0.02,0.0,WeatherDisplay:10.37,2013-07-21 20:36:00,
2013-07-21 22:37:00,72.2,59.3,29.99,ENE,57,11.5,11.5,64,0.00,CLR,,0.02,0.0,WeatherDisplay:10.37,2013-07-21 20:37:00,
2013-07-21 22:40:00,72.1,59.2,29.99,NE,49,8.0,8.0,64,0.00,CLR,,0.02,0.0,WeatherDisplay:10.37,2013-07-21 20:40:00,
2013-07-21 22:41:00,72.1,59.2,29.99,ENE,62,12.7,12.7,64,0.00,CLR,,0.02,0.0,WeatherDisplay:10.37,2013-07-21 20:41:00,
2013-07-21 22:43:00,72.1,59.2,29.99,NNE,22,10.4,10.4,64,0.00,CLR,,0.02,0.0,WeatherDisplay:10.37,2013-07-21 20:43:00,
2013-07-21 22:44:00,72.1,59.2,29.99,NE,40,10.4,10.4,64,0.00,CLR,,0.02,0.0,WeatherDisplay:10.37,2013-07-21 20:44:00,
2013-07-21 22:45:00,72.1,59.2,29.99,NNE,32,8.1,8.1,64,0.00,CLR,,0.02,0.0,WeatherDisplay:10.37,2013-07-21 20:45:00,
2013-07-21 22:46:00,72.0,59.2,29.99,NE,42,8.1,8.1,64,0.00,CLR,,0.02,0.0,WeatherDisplay:10.37,2013-07-21 20:46:00,
2013-07-21 22:47:00,72.0,59.6,29.99,NNE,22,10.4,10.4,65,0.00,CLR,,0.02,0.0,WeatherDisplay:10.37,2013-07-21 20:47:00,
2013-07-21 22:48:00,72.0,59.6,29.98,NNE,16,11.5,11.5,65,0.00,CLR,,0.02,0.0,WeatherDisplay:10.37,2013-07-21 20:48:00,
2013-07-21 22:50:00,72.0,59.6,29.98,NE,38,12.7,12.7,65,0.00,CLR,,0.02,0.0,WeatherDisplay:10.37,2013-07-21 20:50:00,
2013-07-21 22:51:00,71.9,59.5,29.98,NE,42,15.0,15.0,65,0.00,CLR,,0.02,0.0,WeatherDisplay:10.37,2013-07-21 20:51:00,
2013-07-21 22:53:00,71.9,59.5,29.98,NE,53,12.0,12.0,65,0.00,CLR,,0.02,0.0,WeatherDisplay:10.37,2013-07-21 20:53:00,
2013-07-21 22:54:00,71.9,59.5,29.98,ENE,57,15.0,15.0,65,0.00,CLR,,0.02,0.0,WeatherDisplay:10.37,2013-07-21 20:54:00,
2013-07-21 22:55:00,71.9,59.5,29.98,North,360,11.5,11.5,65,0.00,CLR,,0.02,0.0,WeatherDisplay:10.37,2013-07-21 20:55:00,
2013-07-21 22:57:00,71.9,59.9,29.98,NE,49,10.0,10.0,66,0.00,CLR,,0.02,0.0,WeatherDisplay:10.37,2013-07-21 20:57:00,
2013-07-21 22:58:00,71.8,59.8,29.99,ENE,66,12.7,12.7,66,0.00,CLR,,0.02,0.0,WeatherDisplay:10.37,2013-07-21 20:58:00,
2013-07-21 22:59:00,71.8,59.8,29.99,NE,47,9.2,9.2,66,0.00,CLR,,0.02,0.0,WeatherDisplay:10.37,2013-07-21 20:59:00,
2013-07-21 23:01:00,71.8,59.8,29.98,ENE,58,9.2,9.2,66,0.00,CLR,,0.02,0.0,WeatherDisplay:10.37,2013-07-21 21:01:00,
2013-07-21 23:02:00,71.7,59.7,29.98,ENE,65,4.6,4.6,66,0.00,CLR,,0.02,0.0,WeatherDisplay:10.37,2013-07-21 21:02:00,
2013-07-21 23:03:00,71.7,59.7,29.98,NNE,20,4.6,4.6,66,0.00,CLR,,0.02,0.0,WeatherDisplay:10.37,2013-07-21 21:03:00,
2013-07-21 23:04:00,71.6,59.6,29.98,NE,53,4.6,4.6,66,0.00,CLR,,0.02,0.0,WeatherDisplay:10.37,2013-07-21 21:04:00,
2013-07-21 23:06:00,71.6,59.6,29.98,North,355,3.5,3.5,66,0.00,CLR,,0.02,0.0,WeatherDisplay:10.37,2013-07-21 21:06:00,
2013-07-21 23:08:00,71.6,59.6,29.98,NE,40,6.9,6.9,66,0.00,CLR,,0.02,0.0,WeatherDisplay:10.37,2013-07-21 21:08:00,
2013-07-21 23:10:00,71.5,59.5,29.98,NE,53,9.2,9.2,66,0.00,CLR,,0.02,0.0,WeatherDisplay:10.37,2013-07-21 21:10:00,
2013-07-21 23:11:00,71.5,59.5,29.98,ENE,57,7.0,7.0,66,0.00,CLR,,0.02,0.0,WeatherDisplay:10.37,2013-07-21 21:11:00,
2013-07-21 23:13:00,71.4,59.4,29.98,ENE,58,5.8,5.8,66,0.00,CLR,,0.02,0.0,WeatherDisplay:10.37,2013-07-21 21:13:00,
2013-07-21 23:14:00,71.4,59.4,29.98,NE,56,8.1,8.1,66,0.00,CLR,,0.02,0.0,WeatherDisplay:10.37,2013-07-21 21:14:00,
2013-07-21 23:16:00,71.4,59.4,29.98,NE,36,10.4,10.4,66,0.00,CLR,,0.02,0.0,WeatherDisplay:10.37,2013-07-21 21:16:00,
2013-07-21 23:18:00,71.5,59.5,29.98,ENE,62,9.0,9.0,66,0.00,CLR,,0.02,0.0,WeatherDisplay:10.37,2013-07-21 21:18:00,
2013-07-21 23:19:00,71.5,59.5,29.98,NE,53,8.1,8.1,66,0.00,CLR,,0.02,0.0,WeatherDisplay:10.37,2013-07-21 21:19:00,
2013-07-21 23:21:00,71.5,59.5,29.98,NE,44,6.9,6.9,66,0.00,CLR,,0.02,0.0,WeatherDisplay:10.37,2013-07-21 21:21:00,
2013-07-21 23:22:00,71.5,59.5,29.98,NE,37,6.0,6.0,66,0.00,CLR,,0.02,0.0,WeatherDisplay:10.37,2013-07-21 21:22:00,
2013-07-21 23:23:00,71.5,59.5,29.98,NE,43,6.9,6.9,66,0.00,CLR,,0.02,0.0,WeatherDisplay:10.37,2013-07-21 21:23:00,
2013-07-21 23:24:00,71.5,59.5,29.98,NE,55,6.9,6.9,66,0.00,CLR,,0.02,0.0,WeatherDisplay:10.37,2013-07-21 21:24:00,
2013-07-21 23:27:00,71.5,60.0,29.98,NNE,19,8.0,8.0,67,0.00,CLR,,0.02,0.0,WeatherDisplay:10.37,2013-07-21 21:27:00,
2013-07-21 23:29:00,71.5,60.0,29.98,NNE,32,10.4,10.4,67,0.00,CLR,,0.02,0.0,WeatherDisplay:10.37,2013-07-21 21:29:00,
2013-07-21 23:32:00,71.5,60.0,29.98,ENE,61,9.0,9.0,67,0.00,CLR,,0.02,0.0,WeatherDisplay:10.37,2013-07-21 21:32:00,
2013-07-21 23:34:00,71.5,60.0,29.98,ENE,63,5.8,5.8,67,0.00,CLR,,0.02,0.0,WeatherDisplay:10.37,2013-07-21 21:34:00,
2013-07-21 23:35:00,71.5,60.0,29.98,SE,125,6.9,6.9,67,0.00,CLR,,0.02,0.0,WeatherDisplay:10.37,2013-07-21 21:35:00,
2013-07-21 23:37:00,71.4,59.9,29.98,ENE,60,4.0,4.0,67,0.00,CLR,,0.02,0.0,WeatherDisplay:10.37,2013-07-21 21:37:00,
2013-07-21 23:39:00,71.4,59.9,29.98,ENE,64,10.0,10.0,67,0.00,CLR,,0.02,0.0,WeatherDisplay:10.37,2013-07-21 21:39:00,
2013-07-21 23:40:00,71.4,60.3,29.98,NNE,33,10.4,10.4,68,0.00,CLR,,0.02,0.0,WeatherDisplay:10.37,2013-07-21 21:40:00,
2013-07-21 23:42:00,71.3,60.2,29.98,NE,49,11.5,11.5,68,0.00,CLR,,0.02,0.0,WeatherDisplay:10.37,2013-07-21 21:42:00,
2013-07-21 23:43:00,71.3,60.2,29.98,North,360,12.7,12.7,68,0.00,CLR,,0.02,0.0,WeatherDisplay:10.37,2013-07-21 21:43:00,
2013-07-21 23:44:00,71.3,60.2,29.98,NE,40,10.4,10.4,68,0.00,CLR,,0.02,0.0,WeatherDisplay:10.37,2013-07-21 21:44:00,
2013-07-21 23:46:00,71.2,60.1,29.98,ENE,59,12.7,12.7,68,0.00,CLR,,0.02,0.0,WeatherDisplay:10.37,2013-07-21 21:46:00,
2013-07-21 23:47:00,71.2,60.1,29.98,ENE,63,11.5,11.5,68,0.00,CLR,,0.02,0.0,WeatherDisplay:10.37,2013-07-21 21:47:00,
2013-07-21 23:48:00,71.2,60.5,29.98,NE,47,11.5,11.5,69,0.00,CLR,,0.02,0.0,WeatherDisplay:10.37,2013-07-21 21:48:00,
2013-07-21 23:49:00,71.2,60.5,29.98,ENE,57,12.7,12.7,69,0.00,CLR,,0.02,0.0,WeatherDisplay:10.37,2013-07-21 21:49:00,
2013-07-21 23:50:00,71.1,60.4,29.98,NE,51,15.0,15.0,69,0.00,CLR,,0.02,0.0,WeatherDisplay:10.37,2013-07-21 21:50:00,
2013-07-21 23:51:00,71.0,60.3,29.98,NE,43,12.7,12.7,69,0.00,CLR,,0.02,0.0,WeatherDisplay:10.37,2013-07-21 21:51:00,
2013-07-21 23:53:00,71.0,60.3,29.98,ENE,59,11.0,11.0,69,0.00,CLR,,0.02,0.0,WeatherDisplay:10.37,2013-07-21 21:53:00,
2013-07-21 23:54:00,71.0,60.3,29.98,North,11,14.0,14.0,69,0.00,CLR,,0.02,0.0,WeatherDisplay:10.37,2013-07-21 21:54:00,
2013-07-21 23:55:00,70.9,60.2,29.98,NE,36,13.8,13.8,69,0.00,CLR,,0.02,0.0,WeatherDisplay:10.37,2013-07-21 21:55:00,
2013-07-21 23:56:00,70.9,60.2,29.98,NE,49,16.1,16.1,69,0.00,CLR,,0.02,0.0,WeatherDisplay:10.37,2013-07-21 21:56:00,
2013-07-21 23:57:00,70.9,60.2,29.98,NNE,25,15.0,15.0,69,0.00,CLR,,0.02,0.0,WeatherDisplay:10.37,2013-07-21 21:57:00,
2013-07-21 23:58:00,70.9,60.2,29.98,NNE,22,15.0,15.0,69,0.00,CLR,,0.02,0.0,WeatherDisplay:10.37,2013-07-21 21:58:00,
2013-07-21 23:59:00,70.8,60.1,29.98,NE,48,13.8,13.8,69,0.00,CLR,,0.02,0.0,WeatherDisplay:10.37,2013-07-21 21:59:00,